Wetterdaten: Montag, 28.11.2016
Datum Zeit Temp. Aussen Temp. o. S. +5cm Feuchte Auss BlattFeu 1 Luftdruck Regen Sonnenschein Regendauer Solar Windben Empfang
28.11.2016 00:00 1,6 C 1,7 C 0,6 C 92 % 15 lf 1023,8 hPa 0,0 l/m 0 min 0 min 5 W/m 12,6 km/h (3 Bft) 94,00 %
28.11.2016 00:02 1,7 C 1,7 C 0,6 C 92 % 15 lf 1023,9 hPa 0,0 l/m 0 min 0 min 5 W/m 10,5 km/h (2 Bft) 97,50 %
28.11.2016 00:06 1,9 C 2,2 C 0,6 C 93 % 15 lf 1023,9 hPa 0,0 l/m 0 min 0 min 5 W/m 10,5 km/h (2 Bft) 91,49 %
28.11.2016 00:08 2,1 C 2,2 C 0,6 C 93 % 15 lf 1024,0 hPa 0,0 l/m 0 min 0 min 5 W/m 10,5 km/h (2 Bft) 87,23 %
28.11.2016 00:10 2,2 C 2,2 C 0,6 C 93 % 15 lf 1024,0 hPa 0,0 l/m 0 min 0 min 5 W/m 12,6 km/h (3 Bft) 95,24 %
28.11.2016 00:12 2,2 C 2,2 C 0,6 C 94 % 15 lf 1024,0 hPa 0,0 l/m 0 min 0 min 5 W/m 10,5 km/h (2 Bft) 92,00 %
28.11.2016 00:14 2,3 C 2,2 C 1,1 C 94 % 15 lf 1024,1 hPa 0,0 l/m 0 min 0 min 5 W/m 14,6 km/h (3 Bft) 95,74 %
28.11.2016 00:16 2,4 C 2,2 C 1,1 C 94 % 15 lf 1024,1 hPa 0,0 l/m 0 min 0 min 5 W/m 14,6 km/h (3 Bft) 93,62 %
28.11.2016 00:18 2,5 C 2,2 C 1,1 C 94 % 15 lf 1024,2 hPa 0,0 l/m 0 min 0 min 5 W/m 14,6 km/h (3 Bft) 91,67 %
28.11.2016 00:20 2,6 C 2,2 C 1,1 C 94 % 15 lf 1024,2 hPa 0,0 l/m 0 min 0 min 5 W/m 14,6 km/h (3 Bft) 91,49 %
28.11.2016 00:22 2,6 C 2,2 C 1,1 C 94 % 15 lf 1024,2 hPa 0,0 l/m 0 min 0 min 5 W/m 14,6 km/h (3 Bft) 87,23 %
28.11.2016 00:24 2,7 C 2,2 C 1,1 C 94 % 15 lf 1024,2 hPa 0,0 l/m 0 min 0 min 5 W/m 14,6 km/h (3 Bft) 93,48 %
28.11.2016 00:26 2,7 C 2,2 C 1,1 C 94 % 15 lf 1024,1 hPa 0,0 l/m 0 min 0 min 5 W/m 14,6 km/h (3 Bft) 91,49 %
28.11.2016 00:28 2,8 C 2,2 C 1,1 C 94 % 15 lf 1024,2 hPa 0,0 l/m 0 min 0 min 5 W/m 16,7 km/h (3 Bft) 95,35 %
28.11.2016 00:30 2,8 C 2,2 C 1,1 C 94 % 15 lf 1024,2 hPa 0,0 l/m 0 min 0 min 5 W/m 12,6 km/h (3 Bft) 91,84 %
28.11.2016 00:32 2,8 C 2,2 C 1,1 C 95 % 15 lf 1024,2 hPa 0,0 l/m 0 min 0 min 5 W/m 16,7 km/h (3 Bft) 95,92 %
28.11.2016 00:34 2,8 C 2,2 C 1,1 C 95 % 15 lf 1024,1 hPa 0,0 l/m 0 min 0 min 5 W/m 14,6 km/h (3 Bft) 93,48 %
28.11.2016 00:36 2,9 C 2,2 C 1,1 C 95 % 15 lf 1024,2 hPa 0,0 l/m 0 min 0 min 5 W/m 14,6 km/h (3 Bft) 95,35 %
28.11.2016 00:38 2,9 C 2,2 C 1,1 C 95 % 15 lf 1024,3 hPa 0,0 l/m 0 min 0 min 5 W/m 18,8 km/h (3 Bft) 94,00 %
28.11.2016 00:40 2,9 C 2,2 C 0,6 C 95 % 15 lf 1024,3 hPa 0,0 l/m 0 min 0 min 5 W/m 14,6 km/h (3 Bft) 93,75 %
28.11.2016 00:42 2,9 C 2,2 C 1,1 C 95 % 15 lf 1024,2 hPa 0,0 l/m 0 min 0 min 5 W/m 12,6 km/h (3 Bft) 95,74 %
28.11.2016 00:44 2,9 C 2,2 C 0,6 C 95 % 15 lf 1024,3 hPa 0,0 l/m 0 min 0 min 5 W/m 12,6 km/h (3 Bft) 95,74 %
28.11.2016 00:46 2,8 C 2,2 C 0,6 C 95 % 15 lf 1024,4 hPa 0,0 l/m 0 min 0 min 5 W/m 16,7 km/h (3 Bft) 95,65 %
28.11.2016 00:48 2,8 C 2,2 C 1,1 C 95 % 15 lf 1024,3 hPa 0,0 l/m 0 min 0 min 5 W/m 16,7 km/h (3 Bft) 95,35 %
28.11.2016 00:50 2,8 C 2,2 C 0,6 C 95 % 15 lf 1024,2 hPa 0,0 l/m 0 min 0 min 5 W/m 14,6 km/h (3 Bft) 93,62 %
28.11.2016 00:52 2,8 C 2,2 C 0,6 C 95 % 15 lf 1024,3 hPa 0,0 l/m 0 min 0 min 5 W/m 10,5 km/h (2 Bft) 93,88 %
28.11.2016 00:54 2,8 C 2,2 C 0,6 C 95 % 15 lf 1024,4 hPa 0,0 l/m 0 min 0 min 5 W/m 12,6 km/h (3 Bft) 93,88 %
28.11.2016 00:56 2,8 C 2,2 C 0,6 C 95 % 15 lf 1024,4 hPa 0,0 l/m 0 min 0 min 5 W/m 14,6 km/h (3 Bft) 91,49 %
28.11.2016 00:58 2,8 C 2,2 C 0,6 C 95 % 15 lf 1024,4 hPa 0,0 l/m 0 min 0 min 5 W/m 12,6 km/h (3 Bft) 97,62 %
28.11.2016 01:00 2,8 C 1,7 C 0,6 C 95 % 15 lf 1024,4 hPa 0,0 l/m 0 min 0 min 5 W/m 14,6 km/h (3 Bft) 90,00 %
28.11.2016 01:02 2,7 C 1,7 C 0,6 C 95 % 15 lf 1024,4 hPa 0,0 l/m 0 min 0 min 5 W/m 10,5 km/h (2 Bft) 93,62 %
28.11.2016 01:04 2,7 C 1,7 C 0,6 C 95 % 15 lf 1024,3 hPa 0,0 l/m 0 min 0 min 5 W/m 10,5 km/h (2 Bft) 97,92 %
28.11.2016 01:06 2,7 C 1,7 C 0,6 C 95 % 15 lf 1024,4 hPa 0,0 l/m 0 min 0 min 5 W/m 12,6 km/h (3 Bft) 95,74 %
28.11.2016 01:08 2,7 C 1,7 C 0,6 C 95 % 15 lf 1024,4 hPa 0,0 l/m 0 min 0 min 5 W/m 12,6 km/h (3 Bft) 89,36 %
28.11.2016 01:10 2,7 C 1,7 C 0,6 C 95 % 15 lf 1024,4 hPa 0,0 l/m 0 min 0 min 5 W/m 10,5 km/h (2 Bft) 92,86 %
28.11.2016 01:12 2,6 C 1,7 C 0,6 C 95 % 15 lf 1024,4 hPa 0,0 l/m 0 min 0 min 5 W/m 10,5 km/h (2 Bft) 100,00 %
28.11.2016 01:14 2,6 C 1,7 C 0,0 C 95 % 15 lf 1024,4 hPa 0,0 l/m 0 min 0 min 5 W/m 8,4 km/h (2 Bft) 100,00 %
28.11.2016 01:16 2,6 C 1,7 C 0,0 C 95 % 15 lf 1024,4 hPa 0,0 l/m 0 min 0 min 5 W/m 8,4 km/h (2 Bft) 97,92 %
28.11.2016 01:18 2,6 C 1,7 C 0,0 C 95 % 15 lf 1024,4 hPa 0,0 l/m 0 min 0 min 5 W/m 8,4 km/h (2 Bft) 100,00 %
28.11.2016 01:20 2,6 C 1,1 C 0,0 C 95 % 15 lf 1024,4 hPa 0,0 l/m 0 min 0 min 5 W/m 8,4 km/h (2 Bft) 97,87 %
28.11.2016 01:22 2,5 C 1,1 C -0,6 C 95 % 15 lf 1024,4 hPa 0,0 l/m 0 min 0 min 5 W/m 6,3 km/h (2 Bft) 97,62 %
28.11.2016 01:24 2,5 C 1,1 C -0,6 C 95 % 15 lf 1024,4 hPa 0,0 l/m 0 min 0 min 5 W/m 6,3 km/h (2 Bft) 98,00 %
28.11.2016 01:26 2,5 C 1,1 C -0,6 C 95 % 15 lf 1024,4 hPa 0,0 l/m 0 min 0 min 5 W/m 8,4 km/h (2 Bft) 100,00 %
28.11.2016 01:28 2,4 C 1,1 C -0,6 C 95 % 15 lf 1024,5 hPa 0,0 l/m 0 min 0 min 5 W/m 6,3 km/h (2 Bft) 97,87 %
28.11.2016 01:30 2,4 C 1,1 C -1,1 C 95 % 15 lf 1024,4 hPa 0,0 l/m 0 min 0 min 5 W/m 6,3 km/h (2 Bft) 95,24 %
28.11.2016 01:32 2,4 C 0,6 C -1,1 C 95 % 15 lf 1024,5 hPa 0,0 l/m 0 min 0 min 5 W/m 10,5 km/h (2 Bft) 98,00 %
28.11.2016 01:34 2,4 C 0,6 C -1,1 C 95 % 15 lf 1024,5 hPa 0,0 l/m 0 min 0 min 5 W/m 8,4 km/h (2 Bft) 100,00 %
28.11.2016 01:36 2,3 C 0,6 C -1,1 C 95 % 15 lf 1024,5 hPa 0,0 l/m 0 min 0 min 5 W/m 10,5 km/h (2 Bft) 100,00 %
28.11.2016 01:38 2,3 C 0,6 C -1,1 C 95 % 15 lf 1024,5 hPa 0,0 l/m 0 min 0 min 5 W/m 6,3 km/h (2 Bft) 100,00 %
28.11.2016 01:40 2,3 C 0,6 C -1,1 C 95 % 15 lf 1024,6 hPa 0,0 l/m 0 min 0 min 5 W/m 8,4 km/h (2 Bft) 100,00 %
28.11.2016 01:42 2,2 C 0,6 C -1,1 C 95 % 15 lf 1024,6 hPa 0,0 l/m 0 min 0 min 5 W/m 10,5 km/h (2 Bft) 97,96 %
28.11.2016 01:44 2,2 C 0,6 C -1,1 C 95 % 15 lf 1024,6 hPa 0,0 l/m 0 min 0 min 5 W/m 12,6 km/h (3 Bft) 97,87 %
28.11.2016 01:46 2,1 C 1,1 C -1,1 C 95 % 15 lf 1024,6 hPa 0,0 l/m 0 min 0 min 5 W/m 10,5 km/h (2 Bft) 95,24 %
28.11.2016 01:48 2,1 C 1,1 C -1,1 C 95 % 15 lf 1024,6 hPa 0,0 l/m 0 min 0 min 5 W/m 14,6 km/h (3 Bft) 100,00 %
28.11.2016 01:50 2,0 C 1,1 C -0,6 C 95 % 15 lf 1024,6 hPa 0,0 l/m 0 min 0 min 5 W/m 18,8 km/h (3 Bft) 100,00 %
28.11.2016 01:52 2,0 C 1,1 C -0,6 C 95 % 15 lf 1024,6 hPa 0,0 l/m 0 min 0 min 5 W/m 18,8 km/h (3 Bft) 97,87 %
28.11.2016 01:54 1,9 C 1,1 C -0,6 C 95 % 15 lf 1024,6 hPa 0,0 l/m 0 min 0 min 5 W/m 14,6 km/h (3 Bft) 93,62 %
28.11.2016 01:56 1,9 C 1,7 C -0,6 C 95 % 15 lf 1024,7 hPa 0,0 l/m 0 min 0 min 5 W/m 14,6 km/h (3 Bft) 95,65 %
28.11.2016 01:58 1,9 C 1,1 C -0,6 C 95 % 15 lf 1024,7 hPa 0,0 l/m 0 min 0 min 5 W/m 16,7 km/h (3 Bft) 95,35 %
28.11.2016 02:00 1,9 C 1,7 C 0,0 C 95 % 15 lf 1024,7 hPa 0,0 l/m 0 min 0 min 5 W/m 12,6 km/h (3 Bft) 96,00 %
28.11.2016 02:02 1,9 C 1,7 C 0,0 C 95 % 15 lf 1024,7 hPa 0,0 l/m 0 min 0 min 5 W/m 16,7 km/h (3 Bft) 95,83 %
28.11.2016 02:04 1,9 C 1,7 C -0,6 C 95 % 15 lf 1024,8 hPa 0,0 l/m 0 min 0 min 5 W/m 16,7 km/h (3 Bft) 95,74 %
28.11.2016 02:06 1,9 C 1,1 C -0,6 C 95 % 15 lf 1024,8 hPa 0,0 l/m 0 min 0 min 5 W/m 12,6 km/h (3 Bft) 95,24 %
28.11.2016 02:08 1,9 C 1,1 C -0,6 C 95 % 15 lf 1024,8 hPa 0,0 l/m 0 min 0 min 5 W/m 10,5 km/h (2 Bft) 92,00 %
28.11.2016 02:10 1,9 C 1,1 C -0,6 C 96 % 15 lf 1024,8 hPa 0,0 l/m 0 min 0 min 5 W/m 18,8 km/h (3 Bft) 95,83 %
28.11.2016 02:12 1,9 C 1,1 C -0,6 C 96 % 15 lf 1024,8 hPa 0,0 l/m 0 min 0 min 5 W/m 14,6 km/h (3 Bft) 95,74 %
28.11.2016 02:14 1,9 C 1,1 C -0,6 C 96 % 15 lf 1024,8 hPa 0,0 l/m 0 min 0 min 5 W/m 8,4 km/h (2 Bft) 93,62 %
28.11.2016 02:16 1,9 C 1,1 C -0,6 C 96 % 15 lf 1024,8 hPa 0,0 l/m 0 min 0 min 5 W/m 10,5 km/h (2 Bft) 95,74 %
28.11.2016 02:18 1,9 C 1,1 C -0,6 C 96 % 15 lf 1024,8 hPa 0,0 l/m 0 min 0 min 5 W/m 8,4 km/h (2 Bft) 95,74 %
28.11.2016 02:20 1,9 C 1,1 C -1,1 C 96 % 15 lf 1024,8 hPa 0,0 l/m 0 min 0 min 5 W/m 6,3 km/h (2 Bft) 95,24 %
28.11.2016 02:22 1,9 C 1,1 C -1,1 C 96 % 15 lf 1024,9 hPa 0,0 l/m 0 min 0 min 5 W/m 10,5 km/h (2 Bft) 94,00 %
28.11.2016 02:24 1,9 C 0,6 C -1,1 C 96 % 15 lf 1024,9 hPa 0,0 l/m 0 min 0 min 5 W/m 12,6 km/h (3 Bft) 95,74 %
28.11.2016 02:26 1,9 C 0,6 C -1,1 C 96 % 15 lf 1024,8 hPa 0,0 l/m 0 min 0 min 5 W/m 10,5 km/h (2 Bft) 93,75 %
28.11.2016 02:28 1,8 C 1,1 C -1,1 C 96 % 15 lf 1024,9 hPa 0,0 l/m 0 min 0 min 5 W/m 10,5 km/h (2 Bft) 97,87 %
28.11.2016 02:30 1,8 C 0,6 C -1,7 C 96 % 15 lf 1024,9 hPa 0,0 l/m 0 min 0 min 5 W/m 6,3 km/h (2 Bft) 95,24 %
28.11.2016 02:32 1,8 C 0,6 C -1,7 C 96 % 15 lf 1025,0 hPa 0,0 l/m 0 min 0 min 5 W/m 6,3 km/h (2 Bft) 98,00 %
28.11.2016 02:34 1,8 C 0,6 C -1,7 C 96 % 15 lf 1025,0 hPa 0,0 l/m 0 min 0 min 5 W/m 6,3 km/h (2 Bft) 95,83 %
28.11.2016 02:36 1,8 C 0,6 C -1,7 C 96 % 15 lf 1025,0 hPa 0,0 l/m 0 min 0 min 5 W/m 8,4 km/h (2 Bft) 95,74 %
28.11.2016 02:38 1,7 C 0,6 C -1,7 C 96 % 15 lf 1025,0 hPa 0,0 l/m 0 min 0 min 5 W/m 6,3 km/h (2 Bft) 95,74 %
28.11.2016 02:40 1,7 C 0,6 C -1,7 C 96 % 15 lf 1024,9 hPa 0,0 l/m 0 min 0 min 5 W/m 8,4 km/h (2 Bft) 100,00 %
28.11.2016 02:42 1,7 C 0,6 C -1,7 C 96 % 15 lf 1025,0 hPa 0,0 l/m 0 min 0 min 5 W/m 6,3 km/h (2 Bft) 98,00 %
28.11.2016 02:44 1,7 C 0,6 C -1,7 C 96 % 15 lf 1025,0 hPa 0,0 l/m 0 min 0 min 5 W/m 8,4 km/h (2 Bft) 100,00 %
28.11.2016 02:46 1,6 C 0,6 C -1,7 C 96 % 15 lf 1025,1 hPa 0,0 l/m 0 min 0 min 5 W/m 6,3 km/h (2 Bft) 97,87 %
28.11.2016 02:48 1,6 C 0,0 C -2,2 C 96 % 15 lf 1025,1 hPa 0,0 l/m 0 min 0 min 5 W/m 4,2 km/h (1 Bft) 100,00 %
28.11.2016 02:50 1,6 C 0,0 C -2,2 C 96 % 15 lf 1025,1 hPa 0,0 l/m 0 min 0 min 5 W/m 4,2 km/h (1 Bft) 100,00 %
28.11.2016 02:52 1,6 C 0,0 C -2,2 C 96 % 15 lf 1025,1 hPa 0,0 l/m 0 min 0 min 5 W/m 6,3 km/h (2 Bft) 93,88 %
28.11.2016 02:54 1,5 C -0,6 C -2,2 C 96 % 15 lf 1025,1 hPa 0,0 l/m 0 min 0 min 5 W/m 4,2 km/h (1 Bft) 100,00 %
28.11.2016 02:56 1,4 C -0,6 C -2,2 C 96 % 15 lf 1025,2 hPa 0,0 l/m 0 min 0 min 5 W/m 4,2 km/h (1 Bft) 100,00 %
28.11.2016 02:58 1,4 C -0,6 C -2,2 C 96 % 15 lf 1025,2 hPa 0,0 l/m 0 min 0 min 5 W/m 4,2 km/h (1 Bft) 100,00 %
28.11.2016 03:00 1,4 C -0,6 C -2,2 C 95 % 15 lf 1025,2 hPa 0,0 l/m 0 min 0 min 5 W/m 6,3 km/h (2 Bft) 100,00 %
28.11.2016 03:02 1,3 C -0,6 C -2,2 C 95 % 15 lf 1025,2 hPa 0,0 l/m 0 min 0 min 0 W/m 4,2 km/h (1 Bft) 100,00 %
28.11.2016 03:04 1,3 C -0,6 C -2,2 C 95 % 15 lf 1025,3 hPa 0,0 l/m 0 min 0 min 0 W/m 6,3 km/h (2 Bft) 97,87 %
28.11.2016 03:06 1,3 C -0,6 C -2,2 C 95 % 15 lf 1025,3 hPa 0,0 l/m 0 min 0 min 0 W/m 6,3 km/h (2 Bft) 97,83 %
28.11.2016 03:08 1,2 C -0,6 C -2,2 C 95 % 15 lf 1025,4 hPa 0,0 l/m 0 min 0 min 0 W/m 10,5 km/h (2 Bft) 97,87 %
28.11.2016 03:10 1,2 C -0,6 C -2,2 C 96 % 15 lf 1025,4 hPa 0,0 l/m 0 min 0 min 0 W/m 8,4 km/h (2 Bft) 95,35 %
28.11.2016 03:12 1,1 C -0,6 C -2,2 C 96 % 15 lf 1025,4 hPa 0,0 l/m 0 min 0 min 0 W/m 6,3 km/h (2 Bft) 100,00 %
28.11.2016 03:14 1,1 C -0,6 C -2,2 C 95 % 15 lf 1025,4 hPa 0,0 l/m 0 min 0 min 0 W/m 8,4 km/h (2 Bft) 100,00 %
28.11.2016 03:16 1,0 C -0,6 C -2,2 C 95 % 15 lf 1025,4 hPa 0,0 l/m 0 min 0 min 0 W/m 6,3 km/h (2 Bft) 100,00 %
28.11.2016 03:18 1,0 C -0,6 C -2,2 C 95 % 15 lf 1025,5 hPa 0,0 l/m 0 min 0 min 0 W/m 6,3 km/h (2 Bft) 100,00 %
28.11.2016 03:20 0,9 C -0,6 C -2,2 C 95 % 15 lf 1025,5 hPa 0,0 l/m 0 min 2 min 0 W/m 8,4 km/h (2 Bft) 95,74 %
28.11.2016 03:22 0,9 C -0,6 C -2,2 C 95 % 15 lf 1025,5 hPa 0,0 l/m 0 min 0 min 0 W/m 4,2 km/h (1 Bft) 95,35 %
28.11.2016 03:24 0,9 C -1,1 C -2,8 C 95 % 15 lf 1025,5 hPa 0,0 l/m 0 min 0 min 0 W/m 4,2 km/h (1 Bft) 95,92 %
28.11.2016 03:26 0,8 C -1,1 C -2,8 C 95 % 15 lf 1025,5 hPa 0,0 l/m 0 min 0 min 0 W/m 4,2 km/h (1 Bft) 97,96 %
28.11.2016 03:28 0,8 C -1,1 C -2,8 C 95 % 15 lf 1025,4 hPa 0,0 l/m 0 min 0 min 0 W/m 2,1 km/h (1 Bft) 97,87 %
28.11.2016 03:30 0,8 C -1,1 C -2,8 C 95 % 15 lf 1025,5 hPa 0,0 l/m 0 min 0 min 0 W/m 6,3 km/h (2 Bft) 97,83 %
28.11.2016 03:32 0,7 C -1,1 C -2,8 C 95 % 15 lf 1025,5 hPa 0,0 l/m 0 min 0 min 0 W/m 6,3 km/h (2 Bft) 97,87 %
28.11.2016 03:34 0,7 C -1,1 C -2,8 C 95 % 15 lf 1025,5 hPa 0,0 l/m 0 min 0 min 0 W/m 4,2 km/h (1 Bft) 95,74 %
28.11.2016 03:36 0,7 C -1,7 C -2,8 C 95 % 15 lf 1025,5 hPa 0,0 l/m 0 min 0 min 0 W/m 4,2 km/h (1 Bft) 97,87 %
28.11.2016 03:38 0,6 C -1,1 C -2,8 C 95 % 15 lf 1025,6 hPa 0,0 l/m 0 min 0 min 0 W/m 6,3 km/h (2 Bft) 93,62 %
28.11.2016 03:40 0,5 C -1,1 C -2,8 C 95 % 15 lf 1025,5 hPa 0,0 l/m 0 min 0 min 0 W/m 4,2 km/h (1 Bft) 93,62 %
28.11.2016 03:42 0,5 C -1,7 C -2,8 C 95 % 15 lf 1025,5 hPa 0,0 l/m 0 min 0 min 0 W/m 4,2 km/h (1 Bft) 97,83 %
28.11.2016 03:44 0,5 C -1,7 C -2,8 C 95 % 15 lf 1025,5 hPa 0,0 l/m 0 min 0 min 0 W/m 6,3 km/h (2 Bft) 93,02 %
28.11.2016 03:46 0,5 C -1,1 C -2,8 C 95 % 15 lf 1025,5 hPa 0,0 l/m 0 min 0 min 0 W/m 6,3 km/h (2 Bft) 95,92 %
28.11.2016 03:48 0,4 C -1,1 C -2,8 C 95 % 15 lf 1025,6 hPa 0,0 l/m 0 min 0 min 0 W/m 4,2 km/h (1 Bft) 95,92 %
28.11.2016 03:50 0,4 C -1,1 C -2,8 C 95 % 15 lf 1025,6 hPa 0,0 l/m 0 min 0 min 0 W/m 6,3 km/h (2 Bft) 89,36 %
28.11.2016 03:52 0,4 C -1,7 C -2,8 C 95 % 15 lf 1025,7 hPa 0,0 l/m 0 min 0 min 0 W/m 4,2 km/h (1 Bft) 92,86 %
28.11.2016 03:54 0,4 C -1,1 C -2,8 C 95 % 15 lf 1025,7 hPa 0,0 l/m 0 min 0 min 0 W/m 6,3 km/h (2 Bft) 93,62 %
28.11.2016 03:56 0,3 C -1,7 C -2,8 C 95 % 15 lf 1025,7 hPa 0,0 l/m 0 min 0 min 0 W/m 6,3 km/h (2 Bft) 96,00 %
28.11.2016 03:58 0,3 C -1,1 C -2,8 C 95 % 15 lf 1025,7 hPa 0,0 l/m 0 min 0 min 0 W/m 6,3 km/h (2 Bft) 95,83 %
28.11.2016 04:00 0,3 C -1,1 C -2,8 C 95 % 15 lf 1025,7 hPa 0,0 l/m 0 min 2 min 0 W/m 6,3 km/h (2 Bft) 95,74 %
28.11.2016 04:02 0,2 C -1,1 C -2,8 C 95 % 15 lf 1025,7 hPa 0,0 l/m 0 min 2 min 0 W/m 4,2 km/h (1 Bft) 92,86 %
28.11.2016 04:04 0,2 C -1,7 C -2,8 C 95 % 15 lf 1025,7 hPa 0,0 l/m 0 min 0 min 0 W/m 6,3 km/h (2 Bft) 95,65 %
28.11.2016 04:06 0,2 C -1,7 C -2,8 C 95 % 15 lf 1025,8 hPa 0,0 l/m 0 min 0 min 0 W/m 6,3 km/h (2 Bft) 97,67 %
28.11.2016 04:08 0,2 C -1,7 C -2,8 C 95 % 15 lf 1025,8 hPa 0,0 l/m 0 min 0 min 0 W/m 4,2 km/h (1 Bft) 90,00 %
28.11.2016 04:10 0,1 C -1,7 C -3,3 C 95 % 15 lf 1025,8 hPa 0,0 l/m 0 min 0 min 0 W/m 4,2 km/h (1 Bft) 95,65 %
28.11.2016 04:12 0,1 C -1,7 C -3,3 C 95 % 15 lf 1025,8 hPa 0,0 l/m 0 min 0 min 0 W/m 4,2 km/h (1 Bft) 95,74 %
28.11.2016 04:14 0,1 C -1,7 C -3,3 C 95 % 15 lf 1025,9 hPa 0,0 l/m 0 min 0 min 0 W/m 4,2 km/h (1 Bft) 91,84 %
28.11.2016 04:16 0,0 C -1,7 C -3,3 C 95 % 15 lf 1025,9 hPa 0,0 l/m 0 min 0 min 0 W/m 2,1 km/h (1 Bft) 91,30 %
28.11.2016 04:18 0,0 C -1,7 C -3,3 C 95 % 15 lf 1025,8 hPa 0,0 l/m 0 min 0 min 0 W/m 2,1 km/h (1 Bft) 93,62 %
28.11.2016 04:20 0,0 C -1,7 C -1,1 C 95 % 15 lf 1025,9 hPa 0,0 l/m 0 min 0 min 0 W/m 4,2 km/h (1 Bft) 93,02 %
28.11.2016 04:22 -0,1 C -1,7 C -1,7 C 95 % 15 lf 1025,9 hPa 0,0 l/m 0 min 0 min 0 W/m 4,2 km/h (1 Bft) 95,65 %
28.11.2016 04:24 -0,1 C -2,2 C -2,2 C 95 % 15 lf 1025,9 hPa 0,0 l/m 0 min 0 min 0 W/m 2,1 km/h (1 Bft) 90,00 %
28.11.2016 04:26 -0,1 C -2,2 C -2,2 C 95 % 15 lf 1025,9 hPa 0,0 l/m 0 min 0 min 0 W/m 2,1 km/h (1 Bft) 95,92 %
28.11.2016 04:28 -0,2 C -2,2 C -2,8 C 95 % 15 lf 1025,9 hPa 0,0 l/m 0 min 0 min 0 W/m 2,1 km/h (1 Bft) 95,65 %
28.11.2016 04:30 -0,2 C -1,1 C -2,8 C 95 % 15 lf 1026,0 hPa 0,0 l/m 0 min 0 min 0 W/m 4,2 km/h (1 Bft) 97,87 %
28.11.2016 04:32 -0,2 C 0,0 C -2,8 C 95 % 15 lf 1026,0 hPa 0,0 l/m 0 min 0 min 0 W/m 4,2 km/h (1 Bft) 93,02 %
28.11.2016 04:34 -0,3 C -0,6 C -2,8 C 95 % 15 lf 1026,0 hPa 0,0 l/m 0 min 0 min 0 W/m 4,2 km/h (1 Bft) 91,30 %
28.11.2016 04:36 -0,3 C -1,1 C -3,3 C 95 % 15 lf 1026,0 hPa 0,0 l/m 0 min 0 min 0 W/m 2,1 km/h (1 Bft) 92,00 %
28.11.2016 04:38 -0,3 C -1,7 C -3,3 C 95 % 15 lf 1026,0 hPa 0,0 l/m 0 min 0 min 0 W/m 2,1 km/h (1 Bft) 95,92 %
28.11.2016 04:40 -0,4 C -1,7 C -3,3 C 95 % 15 lf 1026,0 hPa 0,0 l/m 0 min 0 min 0 W/m 2,1 km/h (1 Bft) 95,65 %
28.11.2016 04:42 -0,4 C -2,2 C -3,3 C 95 % 15 lf 1026,0 hPa 0,0 l/m 0 min 0 min 0 W/m 2,1 km/h (1 Bft) 91,49 %
28.11.2016 04:44 -0,4 C -1,7 C -3,3 C 95 % 15 lf 1026,0 hPa 0,0 l/m 0 min 0 min 0 W/m 2,1 km/h (1 Bft) 90,70 %
28.11.2016 04:46 -0,5 C -2,2 C -3,3 C 95 % 15 lf 1026,0 hPa 0,0 l/m 0 min 0 min 0 W/m 4,2 km/h (1 Bft) 95,65 %
28.11.2016 04:48 -0,5 C -2,2 C -3,3 C 95 % 15 lf 1026,0 hPa 0,0 l/m 0 min 0 min 0 W/m 4,2 km/h (1 Bft) 94,00 %
28.11.2016 04:50 -0,6 C -2,2 C -3,3 C 95 % 15 lf 1026,0 hPa 0,0 l/m 0 min 0 min 0 W/m 4,2 km/h (1 Bft) 91,84 %
28.11.2016 04:52 -0,6 C -2,2 C -3,3 C 95 % 15 lf 1026,1 hPa 0,0 l/m 0 min 0 min 0 W/m 4,2 km/h (1 Bft) 97,83 %
28.11.2016 04:54 -0,6 C -2,2 C -3,3 C 95 % 15 lf 1026,1 hPa 0,0 l/m 0 min 0 min 0 W/m 2,1 km/h (1 Bft) 93,02 %
28.11.2016 04:56 -0,7 C -2,8 C -3,3 C 95 % 15 lf 1026,1 hPa 0,0 l/m 0 min 2 min 0 W/m 2,1 km/h (1 Bft) 95,92 %
28.11.2016 04:58 -0,7 C -2,8 C -3,3 C 95 % 15 lf 1026,1 hPa 0,0 l/m 0 min 0 min 0 W/m 0,0 km/h (0 Bft) 95,92 %
28.11.2016 05:00 -0,7 C -2,2 C -3,3 C 95 % 15 lf 1026,0 hPa 0,0 l/m 0 min 0 min 0 W/m 0,0 km/h (0 Bft) 95,74 %
28.11.2016 05:02 -0,8 C -2,8 C -3,3 C 95 % 15 lf 1026,1 hPa 0,0 l/m 0 min 0 min 0 W/m 0,0 km/h (0 Bft) 93,62 %
28.11.2016 05:04 -0,8 C -2,8 C -3,9 C 95 % 15 lf 1026,1 hPa 0,0 l/m 0 min 0 min 0 W/m 0,0 km/h (0 Bft) 95,24 %
28.11.2016 05:06 -0,8 C -2,8 C -3,9 C 95 % 15 lf 1026,1 hPa 0,0 l/m 0 min 0 min 0 W/m 0,0 km/h (0 Bft) 96,00 %
28.11.2016 05:08 -0,9 C -2,8 C -3,9 C 95 % 15 lf 1026,1 hPa 0,0 l/m 0 min 0 min 0 W/m 2,1 km/h (1 Bft) 86,96 %
28.11.2016 05:10 -0,9 C -2,8 C -3,9 C 95 % 15 lf 1026,1 hPa 0,0 l/m 0 min 0 min 0 W/m 2,1 km/h (1 Bft) 95,92 %
28.11.2016 05:12 -0,9 C -3,3 C -3,9 C 95 % 15 lf 1026,2 hPa 0,0 l/m 0 min 0 min 0 W/m 0,0 km/h (0 Bft) 97,87 %
28.11.2016 05:14 -1,0 C -2,8 C -3,9 C 95 % 15 lf 1026,2 hPa 0,0 l/m 0 min 0 min 0 W/m 2,1 km/h (1 Bft) 93,48 %
28.11.2016 05:16 -1,0 C -2,8 C -3,9 C 95 % 15 lf 1026,2 hPa 0,0 l/m 0 min 0 min 0 W/m 0,0 km/h (0 Bft) 97,67 %
28.11.2016 05:18 -1,1 C -2,8 C -3,9 C 95 % 15 lf 1026,1 hPa 0,0 l/m 0 min 0 min 0 W/m 0,0 km/h (0 Bft) 94,00 %
28.11.2016 05:20 -1,1 C -2,8 C -3,9 C 95 % 15 lf 1026,2 hPa 0,0 l/m 0 min 0 min 0 W/m 0,0 km/h (0 Bft) 95,83 %
28.11.2016 05:22 -1,2 C -2,8 C -3,9 C 95 % 15 lf 1026,2 hPa 0,0 l/m 0 min 0 min 0 W/m 0,0 km/h (0 Bft) 97,87 %
28.11.2016 05:24 -1,2 C -2,2 C -3,9 C 95 % 15 lf 1026,2 hPa 0,0 l/m 0 min 0 min 0 W/m 0,0 km/h (0 Bft) 97,87 %
28.11.2016 05:26 -1,2 C -2,2 C -3,9 C 95 % 15 lf 1026,4 hPa 0,0 l/m 0 min 0 min 0 W/m 0,0 km/h (0 Bft) 90,48 %
28.11.2016 05:28 -1,3 C -2,8 C -3,9 C 95 % 15 lf 1026,2 hPa 0,0 l/m 0 min 0 min 0 W/m 0,0 km/h (0 Bft) 97,87 %
28.11.2016 05:30 -1,3 C -2,8 C -3,9 C 95 % 15 lf 1026,3 hPa 0,0 l/m 0 min 0 min 0 W/m 0,0 km/h (0 Bft) 97,87 %
28.11.2016 05:32 -1,3 C -2,2 C -3,9 C 95 % 15 lf 1026,4 hPa 0,0 l/m 0 min 0 min 0 W/m 0,0 km/h (0 Bft) 97,87 %
28.11.2016 05:34 -1,3 C -2,8 C -3,9 C 95 % 15 lf 1026,4 hPa 0,0 l/m 0 min 0 min 0 W/m 0,0 km/h (0 Bft) 100,00 %
28.11.2016 05:36 -1,4 C -2,8 C -3,9 C 95 % 15 lf 1026,3 hPa 0,0 l/m 0 min 0 min 0 W/m 2,1 km/h (1 Bft) 94,00 %
28.11.2016 05:38 -1,4 C -3,3 C -3,9 C 95 % 15 lf 1026,4 hPa 0,0 l/m 0 min 0 min 0 W/m 2,1 km/h (1 Bft) 95,74 %
28.11.2016 05:40 -1,4 C -3,3 C -3,9 C 95 % 15 lf 1026,5 hPa 0,0 l/m 0 min 0 min 0 W/m 2,1 km/h (1 Bft) 97,92 %
28.11.2016 05:42 -1,4 C -3,3 C -3,9 C 95 % 15 lf 1026,5 hPa 0,0 l/m 0 min 0 min 0 W/m 2,1 km/h (1 Bft) 95,74 %
28.11.2016 05:44 -1,5 C -3,3 C -3,9 C 95 % 15 lf 1026,5 hPa 0,0 l/m 0 min 0 min 5 W/m 2,1 km/h (1 Bft) 97,62 %
28.11.2016 05:46 -1,5 C -3,3 C -3,9 C 95 % 15 lf 1026,4 hPa 0,0 l/m 0 min 0 min 5 W/m 2,1 km/h (1 Bft) 96,00 %
28.11.2016 05:48 -1,6 C -3,3 C -3,9 C 95 % 15 lf 1026,5 hPa 0,0 l/m 0 min 0 min 0 W/m 0,0 km/h (0 Bft) 97,87 %
28.11.2016 05:50 -1,6 C -3,3 C -3,9 C 95 % 15 lf 1026,5 hPa 0,0 l/m 0 min 0 min 0 W/m 0,0 km/h (0 Bft) 95,83 %
28.11.2016 05:52 -1,6 C -3,3 C -3,9 C 95 % 15 lf 1026,5 hPa 0,0 l/m 0 min 0 min 0 W/m 0,0 km/h (0 Bft) 93,62 %
28.11.2016 05:54 -1,6 C -3,3 C -3,9 C 95 % 15 lf 1026,5 hPa 0,0 l/m 0 min 0 min 0 W/m 0,0 km/h (0 Bft) 97,87 %
28.11.2016 05:56 -1,7 C -3,3 C -3,9 C 95 % 15 lf 1026,5 hPa 0,0 l/m 0 min 0 min 5 W/m 2,1 km/h (1 Bft) 93,62 %
28.11.2016 05:58 -1,7 C -3,3 C -3,9 C 95 % 15 lf 1026,5 hPa 0,0 l/m 0 min 0 min 4 W/m 2,1 km/h (1 Bft) 97,62 %
28.11.2016 06:00 -1,7 C -3,3 C -3,9 C 95 % 15 lf 1026,5 hPa 0,0 l/m 0 min 0 min 0 W/m 2,1 km/h (1 Bft) 96,00 %
28.11.2016 06:02 -1,7 C -3,3 C -3,9 C 95 % 15 lf 1026,5 hPa 0,0 l/m 0 min 0 min 0 W/m 2,1 km/h (1 Bft) 93,75 %
28.11.2016 06:06 -1,8 C -3,3 C -3,9 C 95 % 15 lf 1026,5 hPa 0,0 l/m 0 min 0 min 0 W/m 2,1 km/h (1 Bft) 97,87 %
28.11.2016 06:08 -1,8 C -3,3 C -3,9 C 95 % 15 lf 1026,5 hPa 0,0 l/m 0 min 0 min 0 W/m 4,2 km/h (1 Bft) 97,62 %
28.11.2016 06:10 -1,8 C -3,3 C -3,9 C 95 % 15 lf 1026,7 hPa 0,0 l/m 0 min 0 min 0 W/m 4,2 km/h (1 Bft) 100,00 %
28.11.2016 06:12 -1,8 C -3,3 C -3,9 C 95 % 11 lf 1026,7 hPa 0,0 l/m 0 min 0 min 0 W/m 4,2 km/h (1 Bft) 100,00 %
28.11.2016 06:14 -1,8 C -3,3 C -3,9 C 95 % 3 lf 1026,7 hPa 0,0 l/m 0 min 0 min 0 W/m 4,2 km/h (1 Bft) 97,83 %
28.11.2016 06:16 -1,9 C -3,3 C -3,9 C 95 % 2 lf 1026,7 hPa 0,0 l/m 0 min 0 min 0 W/m 4,2 km/h (1 Bft) 97,87 %
28.11.2016 06:18 -1,9 C -3,3 C -3,9 C 95 % 2 lf 1026,7 hPa 0,0 l/m 0 min 0 min 0 W/m 4,2 km/h (1 Bft) 100,00 %
28.11.2016 06:20 -1,9 C -3,3 C -4,4 C 95 % 2 lf 1026,8 hPa 0,0 l/m 0 min 0 min 0 W/m 4,2 km/h (1 Bft) 100,00 %
28.11.2016 06:22 -1,9 C -3,3 C -4,4 C 95 % 2 lf 1026,7 hPa 0,0 l/m 0 min 0 min 0 W/m 4,2 km/h (1 Bft) 100,00 %
28.11.2016 06:24 -2,0 C -3,9 C -4,4 C 95 % 2 lf 1026,8 hPa 0,0 l/m 0 min 0 min 0 W/m 4,2 km/h (1 Bft) 97,83 %
28.11.2016 06:26 -2,0 C -3,3 C -4,4 C 95 % 2 lf 1026,8 hPa 0,0 l/m 0 min 0 min 0 W/m 4,2 km/h (1 Bft) 97,87 %
28.11.2016 06:28 -2,1 C -3,3 C -4,4 C 95 % 2 lf 1026,8 hPa 0,0 l/m 0 min 0 min 0 W/m 4,2 km/h (1 Bft) 97,67 %
28.11.2016 06:30 -2,1 C -3,3 C -4,4 C 95 % 2 lf 1026,8 hPa 0,0 l/m 0 min 0 min 0 W/m 4,2 km/h (1 Bft) 97,96 %
28.11.2016 06:32 -2,1 C -3,3 C -4,4 C 95 % 2 lf 1026,8 hPa 0,0 l/m 0 min 0 min 0 W/m 4,2 km/h (1 Bft) 95,92 %
28.11.2016 06:34 -2,1 C -3,3 C -4,4 C 95 % 2 lf 1026,8 hPa 0,0 l/m 0 min 0 min 0 W/m 4,2 km/h (1 Bft) 95,74 %
28.11.2016 06:36 -2,1 C -3,3 C -4,4 C 95 % 2 lf 1026,9 hPa 0,0 l/m 0 min 0 min 0 W/m 4,2 km/h (1 Bft) 95,65 %
28.11.2016 06:38 -2,2 C -3,3 C -4,4 C 95 % 2 lf 1026,9 hPa 0,0 l/m 0 min 0 min 0 W/m 4,2 km/h (1 Bft) 97,67 %
28.11.2016 06:40 -2,2 C -3,9 C -4,4 C 95 % 2 lf 1027,0 hPa 0,0 l/m 0 min 0 min 0 W/m 4,2 km/h (1 Bft) 94,00 %
28.11.2016 06:42 -2,2 C -3,9 C -4,4 C 95 % 2 lf 1026,9 hPa 0,0 l/m 0 min 0 min 0 W/m 4,2 km/h (1 Bft) 97,92 %
28.11.2016 06:44 -2,2 C -3,9 C -4,4 C 95 % 2 lf 1026,9 hPa 0,0 l/m 0 min 0 min 0 W/m 4,2 km/h (1 Bft) 91,49 %
28.11.2016 06:46 -2,2 C -3,3 C -4,4 C 95 % 2 lf 1027,0 hPa 0,0 l/m 0 min 0 min 0 W/m 4,2 km/h (1 Bft) 97,87 %
28.11.2016 06:48 -2,2 C -3,3 C -4,4 C 95 % 2 lf 1027,0 hPa 0,0 l/m 0 min 0 min 0 W/m 4,2 km/h (1 Bft) 97,62 %
28.11.2016 06:50 -2,3 C -3,3 C -4,4 C 95 % 2 lf 1027,0 hPa 0,0 l/m 0 min 0 min 0 W/m 6,3 km/h (2 Bft) 94,00 %
28.11.2016 06:52 -2,3 C -3,3 C -4,4 C 95 % 2 lf 1027,0 hPa 0,0 l/m 0 min 0 min 0 W/m 4,2 km/h (1 Bft) 97,92 %
28.11.2016 06:54 -2,3 C -3,3 C -4,4 C 95 % 2 lf 1027,1 hPa 0,0 l/m 0 min 0 min 0 W/m 6,3 km/h (2 Bft) 93,62 %
28.11.2016 06:56 -2,3 C -3,3 C -4,4 C 95 % 2 lf 1027,1 hPa 0,0 l/m 0 min 0 min 0 W/m 6,3 km/h (2 Bft) 89,36 %
28.11.2016 06:58 -2,3 C -3,3 C -4,4 C 95 % 2 lf 1027,1 hPa 0,0 l/m 0 min 0 min 0 W/m 6,3 km/h (2 Bft) 93,62 %
28.11.2016 07:00 -2,3 C -2,8 C -4,4 C 95 % 2 lf 1027,2 hPa 0,0 l/m 0 min 0 min 0 W/m 6,3 km/h (2 Bft) 92,86 %
28.11.2016 07:02 -2,3 C -2,8 C -3,9 C 95 % 2 lf 1027,1 hPa 0,0 l/m 0 min 0 min 0 W/m 6,3 km/h (2 Bft) 94,00 %
28.11.2016 07:04 -2,3 C -2,8 C -3,9 C 95 % 2 lf 1027,2 hPa 0,0 l/m 0 min 0 min 0 W/m 6,3 km/h (2 Bft) 95,83 %
28.11.2016 07:06 -2,3 C -2,8 C -3,9 C 95 % 2 lf 1027,2 hPa 0,0 l/m 0 min 0 min 0 W/m 6,3 km/h (2 Bft) 93,62 %
28.11.2016 07:08 -2,3 C -2,8 C -3,9 C 95 % 2 lf 1027,2 hPa 0,0 l/m 0 min 0 min 0 W/m 6,3 km/h (2 Bft) 92,86 %
28.11.2016 07:10 -2,3 C -2,8 C -3,9 C 95 % 2 lf 1027,2 hPa 0,0 l/m 0 min 0 min 0 W/m 6,3 km/h (2 Bft) 92,00 %
28.11.2016 07:12 -2,3 C -2,8 C -4,4 C 95 % 2 lf 1027,3 hPa 0,0 l/m 0 min 0 min 0 W/m 6,3 km/h (2 Bft) 91,67 %
28.11.2016 07:14 -2,3 C -2,8 C -4,4 C 95 % 2 lf 1027,2 hPa 0,0 l/m 0 min 0 min 0 W/m 6,3 km/h (2 Bft) 95,74 %
28.11.2016 07:16 -2,3 C -2,8 C -4,4 C 95 % 2 lf 1027,3 hPa 0,0 l/m 0 min 0 min 0 W/m 6,3 km/h (2 Bft) 95,35 %
28.11.2016 07:18 -2,3 C -2,8 C -4,4 C 95 % 2 lf 1027,3 hPa 0,0 l/m 0 min 0 min 0 W/m 6,3 km/h (2 Bft) 95,92 %
28.11.2016 07:20 -2,3 C -2,8 C -4,4 C 95 % 2 lf 1027,3 hPa 0,0 l/m 0 min 0 min 0 W/m 8,4 km/h (2 Bft) 93,88 %
28.11.2016 07:22 -2,3 C -3,3 C -4,4 C 95 % 2 lf 1027,3 hPa 0,0 l/m 0 min 0 min 0 W/m 6,3 km/h (2 Bft) 91,30 %
28.11.2016 07:24 -2,3 C -2,8 C -4,4 C 95 % 2 lf 1027,4 hPa 0,0 l/m 0 min 0 min 0 W/m 8,4 km/h (2 Bft) 95,74 %
28.11.2016 07:26 -2,3 C -2,8 C -3,9 C 95 % 2 lf 1027,4 hPa 0,0 l/m 0 min 0 min 0 W/m 8,4 km/h (2 Bft) 93,02 %
28.11.2016 07:28 -2,2 C -2,8 C -3,9 C 95 % 2 lf 1027,5 hPa 0,0 l/m 0 min 0 min 0 W/m 6,3 km/h (2 Bft) 93,88 %
28.11.2016 07:30 -2,2 C -2,8 C -4,4 C 95 % 2 lf 1027,5 hPa 0,0 l/m 0 min 0 min 0 W/m 6,3 km/h (2 Bft) 91,84 %
28.11.2016 07:32 -2,2 C -2,8 C -4,4 C 95 % 2 lf 1027,5 hPa 0,0 l/m 0 min 0 min 0 W/m 6,3 km/h (2 Bft) 93,62 %
28.11.2016 07:34 -2,2 C -2,8 C -4,4 C 95 % 2 lf 1027,5 hPa 0,0 l/m 0 min 0 min 0 W/m 6,3 km/h (2 Bft) 97,83 %
28.11.2016 07:36 -2,2 C -2,2 C -4,4 C 95 % 2 lf 1027,5 hPa 0,0 l/m 0 min 0 min 0 W/m 6,3 km/h (2 Bft) 97,67 %
28.11.2016 07:38 -2,2 C -2,8 C -4,4 C 95 % 2 lf 1027,5 hPa 0,0 l/m 0 min 0 min 0 W/m 6,3 km/h (2 Bft) 96,00 %
28.11.2016 07:40 -2,2 C -2,8 C -4,4 C 95 % 2 lf 1027,5 hPa 0,0 l/m 0 min 0 min 0 W/m 4,2 km/h (1 Bft) 95,65 %
28.11.2016 07:42 -2,2 C -3,3 C -4,4 C 95 % 2 lf 1027,5 hPa 0,0 l/m 0 min 0 min 0 W/m 4,2 km/h (1 Bft) 95,74 %
28.11.2016 07:44 -2,2 C -3,3 C -4,4 C 95 % 2 lf 1027,5 hPa 0,0 l/m 0 min 0 min 0 W/m 6,3 km/h (2 Bft) 95,92 %
28.11.2016 07:46 -2,2 C -3,3 C -4,4 C 95 % 2 lf 1027,6 hPa 0,0 l/m 0 min 0 min 0 W/m 4,2 km/h (1 Bft) 95,65 %
28.11.2016 07:48 -2,2 C -3,3 C -4,4 C 95 % 2 lf 1027,6 hPa 0,0 l/m 0 min 0 min 0 W/m 4,2 km/h (1 Bft) 95,35 %
28.11.2016 07:50 -2,2 C -3,3 C -4,4 C 95 % 2 lf 1027,7 hPa 0,0 l/m 0 min 0 min 0 W/m 4,2 km/h (1 Bft) 97,87 %
28.11.2016 07:52 -2,2 C -3,3 C -4,4 C 95 % 2 lf 1027,7 hPa 0,0 l/m 0 min 0 min 0 W/m 4,2 km/h (1 Bft) 93,48 %
28.11.2016 07:54 -2,2 C -3,3 C -4,4 C 95 % 2 lf 1027,7 hPa 0,0 l/m 0 min 0 min 0 W/m 6,3 km/h (2 Bft) 98,00 %
28.11.2016 07:56 -2,2 C -3,3 C -4,4 C 95 % 1 lf 1027,7 hPa 0,0 l/m 0 min 0 min 0 W/m 6,3 km/h (2 Bft) 95,74 %
28.11.2016 07:58 -2,2 C -3,9 C -4,4 C 95 % 1 lf 1027,8 hPa 0,0 l/m 0 min 0 min 0 W/m 4,2 km/h (1 Bft) 97,87 %
28.11.2016 08:00 -2,2 C -3,9 C -4,4 C 95 % 1 lf 1027,8 hPa 0,0 l/m 0 min 0 min 0 W/m 4,2 km/h (1 Bft) 100,00 %
28.11.2016 08:02 -2,2 C -3,3 C -4,4 C 95 % 1 lf 1027,9 hPa 0,0 l/m 0 min 0 min 3 W/m 4,2 km/h (1 Bft) 97,87 %
28.11.2016 08:04 -2,3 C -3,9 C -4,4 C 95 % 1 lf 1027,9 hPa 0,0 l/m 0 min 0 min 5 W/m 2,1 km/h (1 Bft) 97,92 %
28.11.2016 08:06 -2,3 C -3,9 C -4,4 C 95 % 1 lf 1027,9 hPa 0,0 l/m 0 min 0 min 5 W/m 2,1 km/h (1 Bft) 100,00 %
28.11.2016 08:08 -2,3 C -3,9 C -4,4 C 95 % 1 lf 1028,0 hPa 0,0 l/m 0 min 0 min 5 W/m 2,1 km/h (1 Bft) 100,00 %
28.11.2016 08:10 -2,3 C -3,9 C -4,4 C 95 % 1 lf 1028,0 hPa 0,0 l/m 0 min 0 min 7 W/m 2,1 km/h (1 Bft) 97,87 %
28.11.2016 08:12 -2,3 C -3,3 C -4,4 C 95 % 1 lf 1028,0 hPa 0,0 l/m 0 min 0 min 47 W/m 2,1 km/h (1 Bft) 98,00 %
28.11.2016 08:14 -2,4 C -3,9 C -4,4 C 95 % 1 lf 1028,1 hPa 0,0 l/m 0 min 0 min 7 W/m 2,1 km/h (1 Bft) 100,00 %
28.11.2016 08:16 -2,4 C -3,9 C -4,4 C 95 % 1 lf 1028,1 hPa 0,0 l/m 0 min 0 min 9 W/m 2,1 km/h (1 Bft) 97,96 %
28.11.2016 08:18 -2,4 C -3,9 C -4,4 C 95 % 1 lf 1028,1 hPa 0,0 l/m 0 min 0 min 9 W/m 4,2 km/h (1 Bft) 100,00 %
28.11.2016 08:20 -2,4 C -3,9 C -4,4 C 95 % 1 lf 1028,2 hPa 0,0 l/m 0 min 0 min 10 W/m 2,1 km/h (1 Bft) 97,62 %
28.11.2016 08:22 -2,5 C -3,9 C -4,4 C 95 % 1 lf 1028,1 hPa 0,0 l/m 0 min 0 min 11 W/m 4,2 km/h (1 Bft) 100,00 %
28.11.2016 08:24 -2,5 C -3,9 C -4,4 C 95 % 2 lf 1028,2 hPa 0,0 l/m 0 min 0 min 12 W/m 4,2 km/h (1 Bft) 97,87 %
28.11.2016 08:26 -2,5 C -3,9 C -4,4 C 95 % 1 lf 1028,2 hPa 0,0 l/m 0 min 0 min 12 W/m 4,2 km/h (1 Bft) 97,96 %
28.11.2016 08:28 -2,6 C -3,3 C -4,4 C 95 % 1 lf 1028,3 hPa 0,0 l/m 0 min 0 min 13 W/m 4,2 km/h (1 Bft) 100,00 %
28.11.2016 08:30 -2,6 C -3,3 C -4,4 C 95 % 1 lf 1028,3 hPa 0,0 l/m 0 min 0 min 14 W/m 4,2 km/h (1 Bft) 100,00 %
28.11.2016 08:32 -2,6 C -3,3 C -4,4 C 95 % 1 lf 1028,3 hPa 0,0 l/m 0 min 0 min 15 W/m 2,1 km/h (1 Bft) 97,92 %
28.11.2016 08:34 -2,6 C -3,3 C -4,4 C 95 % 1 lf 1028,4 hPa 0,0 l/m 0 min 0 min 16 W/m 2,1 km/h (1 Bft) 100,00 %
28.11.2016 08:36 -2,6 C -3,3 C -4,4 C 95 % 1 lf 1028,4 hPa 0,0 l/m 0 min 0 min 17 W/m 2,1 km/h (1 Bft) 100,00 %
28.11.2016 08:38 -2,6 C -3,9 C -4,4 C 95 % 1 lf 1028,4 hPa 0,0 l/m 0 min 0 min 18 W/m 2,1 km/h (1 Bft) 100,00 %
28.11.2016 08:40 -2,6 C -3,3 C -4,4 C 95 % 2 lf 1028,4 hPa 0,0 l/m 0 min 0 min 19 W/m 4,2 km/h (1 Bft) 100,00 %
28.11.2016 08:42 -2,6 C -3,3 C -4,4 C 95 % 1 lf 1028,4 hPa 0,0 l/m 0 min 0 min 21 W/m 2,1 km/h (1 Bft) 98,00 %
28.11.2016 08:44 -2,7 C -3,9 C -4,4 C 95 % 2 lf 1028,4 hPa 0,0 l/m 0 min 0 min 22 W/m 4,2 km/h (1 Bft) 100,00 %
28.11.2016 08:46 -2,7 C -3,9 C -4,4 C 95 % 2 lf 1028,4 hPa 0,0 l/m 0 min 0 min 25 W/m 4,2 km/h (1 Bft) 100,00 %
28.11.2016 08:48 -2,7 C -3,3 C -4,4 C 95 % 2 lf 1028,4 hPa 0,0 l/m 0 min 0 min 26 W/m 4,2 km/h (1 Bft) 100,00 %
28.11.2016 08:50 -2,7 C -3,3 C -4,4 C 95 % 2 lf 1028,6 hPa 0,0 l/m 0 min 0 min 28 W/m 4,2 km/h (1 Bft) 97,62 %
28.11.2016 08:52 -2,7 C -3,3 C -4,4 C 95 % 2 lf 1028,6 hPa 0,0 l/m 0 min 0 min 35 W/m 4,2 km/h (1 Bft) 100,00 %
28.11.2016 08:54 -2,7 C -3,3 C -3,9 C 95 % 2 lf 1028,7 hPa 0,0 l/m 2 min 0 min 38 W/m 4,2 km/h (1 Bft) 98,00 %
28.11.2016 08:56 -2,7 C -3,3 C -3,9 C 95 % 2 lf 1028,7 hPa 0,0 l/m 2 min 0 min 41 W/m 4,2 km/h (1 Bft) 97,92 %
28.11.2016 08:58 -2,6 C -2,8 C -3,9 C 95 % 2 lf 1028,7 hPa 0,0 l/m 2 min 0 min 44 W/m 4,2 km/h (1 Bft) 97,87 %
28.11.2016 09:00 -2,6 C -2,8 C -3,9 C 95 % 2 lf 1028,7 hPa 0,0 l/m 2 min 0 min 50 W/m 4,2 km/h (1 Bft) 97,67 %
28.11.2016 09:02 -2,6 C -2,8 C -3,9 C 95 % 2 lf 1028,8 hPa 0,0 l/m 2 min 0 min 54 W/m 4,2 km/h (1 Bft) 100,00 %
28.11.2016 09:04 -2,6 C -2,8 C -3,9 C 95 % 2 lf 1028,8 hPa 0,0 l/m 2 min 0 min 58 W/m 4,2 km/h (1 Bft) 97,96 %
28.11.2016 09:06 -2,6 C -2,2 C -3,9 C 95 % 2 lf 1028,8 hPa 0,0 l/m 2 min 0 min 60 W/m 4,2 km/h (1 Bft) 95,74 %
28.11.2016 09:08 -2,5 C -2,2 C -3,3 C 95 % 3 lf 1028,8 hPa 0,0 l/m 2 min 0 min 67 W/m 4,2 km/h (1 Bft) 95,65 %
28.11.2016 09:10 -2,4 C -2,2 C -3,3 C 95 % 3 lf 1028,8 hPa 0,0 l/m 2 min 0 min 71 W/m 4,2 km/h (1 Bft) 93,02 %
28.11.2016 09:12 -2,4 C -2,2 C -3,3 C 95 % 3 lf 1028,8 hPa 0,0 l/m 2 min 0 min 75 W/m 4,2 km/h (1 Bft) 98,00 %
28.11.2016 09:14 -2,3 C -2,2 C -3,3 C 95 % 3 lf 1028,8 hPa 0,0 l/m 2 min 0 min 79 W/m 4,2 km/h (1 Bft) 100,00 %
28.11.2016 09:16 -2,3 C -2,2 C -3,3 C 95 % 3 lf 1028,9 hPa 0,0 l/m 2 min 0 min 83 W/m 4,2 km/h (1 Bft) 91,49 %
28.11.2016 09:18 -2,2 C -2,2 C -3,3 C 96 % 3 lf 1028,9 hPa 0,0 l/m 2 min 0 min 86 W/m 4,2 km/h (1 Bft) 97,62 %
28.11.2016 09:20 -2,2 C -1,7 C -2,8 C 96 % 3 lf 1029,0 hPa 0,0 l/m 2 min 0 min 90 W/m 4,2 km/h (1 Bft) 94,00 %
28.11.2016 09:22 -2,1 C -1,7 C -2,8 C 96 % 3 lf 1029,0 hPa 0,0 l/m 2 min 0 min 96 W/m 4,2 km/h (1 Bft) 95,74 %
28.11.2016 09:24 -2,1 C -1,7 C -2,8 C 96 % 3 lf 1029,0 hPa 0,0 l/m 2 min 0 min 99 W/m 6,3 km/h (2 Bft) 91,30 %
28.11.2016 09:26 -2,0 C -1,7 C -2,8 C 96 % 3 lf 1029,0 hPa 0,0 l/m 2 min 0 min 102 W/m 6,3 km/h (2 Bft) 91,84 %
28.11.2016 09:28 -1,9 C -1,7 C -2,8 C 96 % 3 lf 1029,1 hPa 0,0 l/m 2 min 0 min 105 W/m 6,3 km/h (2 Bft) 93,62 %
28.11.2016 09:30 -1,9 C -1,7 C -2,8 C 96 % 3 lf 1029,1 hPa 0,0 l/m 2 min 0 min 109 W/m 4,2 km/h (1 Bft) 92,86 %
28.11.2016 09:32 -1,8 C -1,7 C -2,8 C 96 % 3 lf 1029,2 hPa 0,0 l/m 2 min 0 min 113 W/m 4,2 km/h (1 Bft) 94,00 %
28.11.2016 09:34 -1,8 C -1,7 C -3,3 C 96 % 3 lf 1029,2 hPa 0,0 l/m 2 min 0 min 125 W/m 4,2 km/h (1 Bft) 87,50 %
28.11.2016 09:36 -1,7 C -1,7 C -2,8 C 96 % 3 lf 1029,2 hPa 0,0 l/m 2 min 0 min 132 W/m 4,2 km/h (1 Bft) 85,11 %
28.11.2016 09:38 -1,7 C -1,1 C -2,8 C 96 % 4 lf 1029,3 hPa 0,0 l/m 2 min 0 min 117 W/m 4,2 km/h (1 Bft) 93,62 %
28.11.2016 09:40 -1,7 C -1,1 C -2,8 C 96 % 4 lf 1029,3 hPa 0,0 l/m 2 min 0 min 119 W/m 4,2 km/h (1 Bft) 92,86 %
28.11.2016 09:42 -1,6 C -1,1 C -2,2 C 96 % 4 lf 1029,4 hPa 0,0 l/m 2 min 0 min 118 W/m 4,2 km/h (1 Bft) 94,00 %
28.11.2016 09:44 -1,6 C -1,1 C -2,2 C 96 % 4 lf 1029,4 hPa 0,0 l/m 2 min 0 min 120 W/m 4,2 km/h (1 Bft) 89,58 %
28.11.2016 09:46 -1,5 C -1,1 C -2,2 C 96 % 4 lf 1029,4 hPa 0,0 l/m 2 min 0 min 120 W/m 6,3 km/h (2 Bft) 93,62 %
28.11.2016 09:48 -1,4 C -1,1 C -2,2 C 96 % 5 lf 1029,4 hPa 0,0 l/m 2 min 0 min 121 W/m 4,2 km/h (1 Bft) 89,36 %
28.11.2016 09:50 -1,4 C -1,1 C -2,2 C 96 % 5 lf 1029,4 hPa 0,0 l/m 2 min 0 min 122 W/m 6,3 km/h (2 Bft) 91,49 %
28.11.2016 09:52 -1,3 C -0,6 C -2,2 C 96 % 8 lf 1029,4 hPa 0,0 l/m 2 min 0 min 123 W/m 6,3 km/h (2 Bft) 95,24 %
28.11.2016 09:54 -1,3 C -0,6 C -2,2 C 96 % 7 lf 1029,5 hPa 0,0 l/m 2 min 0 min 122 W/m 4,2 km/h (1 Bft) 92,00 %
28.11.2016 09:56 -1,2 C -0,6 C -2,2 C 96 % 7 lf 1029,5 hPa 0,0 l/m 2 min 0 min 124 W/m 6,3 km/h (2 Bft) 91,49 %
28.11.2016 09:58 -1,2 C -0,6 C -2,2 C 96 % 6 lf 1029,5 hPa 0,0 l/m 2 min 0 min 130 W/m 4,2 km/h (1 Bft) 93,62 %
28.11.2016 10:00 -1,2 C -0,6 C -2,2 C 96 % 8 lf 1029,5 hPa 0,0 l/m 2 min 0 min 135 W/m 4,2 km/h (1 Bft) 95,83 %
28.11.2016 10:02 -1,1 C -0,6 C -2,2 C 96 % 10 lf 1029,5 hPa 0,0 l/m 2 min 0 min 140 W/m 8,4 km/h (2 Bft) 93,62 %
28.11.2016 10:04 -1,1 C -0,6 C -2,2 C 96 % 10 lf 1029,5 hPa 0,0 l/m 2 min 0 min 143 W/m 4,2 km/h (1 Bft) 92,86 %
28.11.2016 10:06 -1,1 C -0,6 C -2,2 C 96 % 11 lf 1029,6 hPa 0,0 l/m 2 min 0 min 148 W/m 4,2 km/h (1 Bft) 94,00 %
28.11.2016 10:08 -1,0 C -0,6 C -2,2 C 96 % 12 lf 1029,5 hPa 0,0 l/m 2 min 0 min 150 W/m 6,3 km/h (2 Bft) 91,49 %
28.11.2016 10:10 -0,9 C 0,0 C -2,2 C 96 % 13 lf 1029,6 hPa 0,0 l/m 2 min 0 min 153 W/m 6,3 km/h (2 Bft) 93,75 %
28.11.2016 10:12 -0,9 C 0,0 C -2,2 C 96 % 14 lf 1029,7 hPa 0,0 l/m 2 min 0 min 157 W/m 6,3 km/h (2 Bft) 93,62 %
28.11.2016 10:14 -0,9 C 0,0 C -1,7 C 96 % 15 lf 1029,7 hPa 0,0 l/m 2 min 0 min 160 W/m 16,7 km/h (3 Bft) 95,24 %
28.11.2016 10:16 -0,8 C 0,0 C -1,7 C 96 % 15 lf 1029,8 hPa 0,0 l/m 2 min 0 min 163 W/m 14,6 km/h (3 Bft) 96,00 %
28.11.2016 10:18 -0,7 C 0,0 C -1,7 C 96 % 15 lf 1029,8 hPa 0,0 l/m 2 min 0 min 166 W/m 12,6 km/h (3 Bft) 93,75 %
28.11.2016 10:20 -0,7 C 0,0 C -1,7 C 96 % 15 lf 1029,8 hPa 0,0 l/m 2 min 0 min 169 W/m 16,7 km/h (3 Bft) 95,74 %
28.11.2016 10:22 -0,6 C 0,0 C -1,7 C 96 % 15 lf 1029,9 hPa 0,0 l/m 2 min 0 min 171 W/m 18,8 km/h (3 Bft) 95,35 %
28.11.2016 10:24 -0,5 C 0,0 C -1,7 C 96 % 15 lf 1029,9 hPa 0,0 l/m 2 min 0 min 174 W/m 14,6 km/h (3 Bft) 91,30 %
28.11.2016 10:26 -0,4 C 0,0 C -1,7 C 96 % 15 lf 1029,9 hPa 0,0 l/m 2 min 0 min 178 W/m 18,8 km/h (3 Bft) 95,74 %
28.11.2016 10:28 -0,4 C 0,0 C -1,7 C 96 % 15 lf 1029,9 hPa 0,0 l/m 2 min 0 min 174 W/m 16,7 km/h (3 Bft) 95,74 %
28.11.2016 10:30 -0,3 C 0,0 C -1,7 C 97 % 15 lf 1029,9 hPa 0,0 l/m 2 min 0 min 177 W/m 18,8 km/h (3 Bft) 100,00 %
28.11.2016 10:32 -0,3 C 0,6 C -1,7 C 97 % 15 lf 1029,9 hPa 0,0 l/m 2 min 0 min 179 W/m 18,8 km/h (3 Bft) 93,62 %
28.11.2016 10:34 -0,2 C 2,2 C -1,7 C 97 % 15 lf 1029,9 hPa 0,0 l/m 2 min 0 min 181 W/m 16,7 km/h (3 Bft) 95,74 %
28.11.2016 10:36 -0,2 C 3,9 C -1,7 C 97 % 15 lf 1029,9 hPa 0,0 l/m 2 min 0 min 184 W/m 16,7 km/h (3 Bft) 97,83 %
28.11.2016 10:38 -0,1 C 3,3 C -1,7 C 97 % 15 lf 1029,9 hPa 0,0 l/m 2 min 0 min 187 W/m 18,8 km/h (3 Bft) 97,87 %
28.11.2016 10:40 -0,1 C 3,9 C -1,7 C 97 % 15 lf 1030,0 hPa 0,0 l/m 2 min 0 min 189 W/m 14,6 km/h (3 Bft) 97,87 %
28.11.2016 10:42 0,0 C 3,9 C -1,7 C 97 % 15 lf 1030,0 hPa 0,0 l/m 2 min 0 min 198 W/m 20,9 km/h (4 Bft) 95,74 %
28.11.2016 10:44 0,1 C 4,4 C -1,7 C 97 % 15 lf 1029,9 hPa 0,0 l/m 2 min 0 min 202 W/m 20,9 km/h (4 Bft) 100,00 %
28.11.2016 10:46 0,1 C 5,0 C -1,7 C 97 % 15 lf 1029,9 hPa 0,0 l/m 2 min 0 min 206 W/m 16,7 km/h (3 Bft) 97,87 %
28.11.2016 10:48 0,2 C 4,4 C -1,7 C 97 % 15 lf 1029,9 hPa 0,0 l/m 2 min 0 min 208 W/m 14,6 km/h (3 Bft) 97,83 %
28.11.2016 10:50 0,3 C 5,0 C -1,7 C 97 % 15 lf 1030,0 hPa 0,2 l/m 2 min 2 min 211 W/m 16,7 km/h (3 Bft) 93,62 %
28.11.2016 10:52 0,3 C 5,0 C -1,1 C 97 % 15 lf 1030,0 hPa 0,0 l/m 2 min 2 min 213 W/m 18,8 km/h (3 Bft) 100,00 %
28.11.2016 10:54 0,4 C 5,0 C -1,1 C 97 % 15 lf 1030,0 hPa 0,0 l/m 2 min 2 min 216 W/m 16,7 km/h (3 Bft) 97,87 %
28.11.2016 10:56 0,5 C 4,4 C -1,1 C 97 % 15 lf 1030,0 hPa 0,0 l/m 2 min 0 min 218 W/m 16,7 km/h (3 Bft) 97,87 %
28.11.2016 10:58 0,5 C 4,4 C -1,1 C 97 % 15 lf 1030,0 hPa 0,0 l/m 2 min 0 min 220 W/m 18,8 km/h (3 Bft) 97,83 %
28.11.2016 11:00 0,7 C 4,4 C -1,1 C 97 % 15 lf 1030,0 hPa 0,0 l/m 2 min 0 min 222 W/m 18,8 km/h (3 Bft) 97,87 %
28.11.2016 11:02 0,7 C 5,0 C -1,1 C 97 % 15 lf 1030,0 hPa 0,0 l/m 2 min 0 min 225 W/m 20,9 km/h (4 Bft) 100,00 %
28.11.2016 11:04 0,7 C 5,6 C -1,1 C 97 % 15 lf 1030,0 hPa 0,0 l/m 2 min 0 min 227 W/m 16,7 km/h (3 Bft) 97,87 %
28.11.2016 11:06 0,8 C 6,7 C -1,1 C 97 % 15 lf 1030,0 hPa 0,0 l/m 2 min 0 min 229 W/m 18,8 km/h (3 Bft) 97,87 %
28.11.2016 11:08 0,8 C 7,8 C -1,1 C 97 % 15 lf 1030,0 hPa 0,0 l/m 2 min 0 min 230 W/m 18,8 km/h (3 Bft) 97,87 %
28.11.2016 11:10 0,9 C 6,1 C -1,1 C 97 % 15 lf 1030,0 hPa 0,0 l/m 2 min 0 min 232 W/m 23,0 km/h (4 Bft) 100,00 %
28.11.2016 11:12 1,0 C 7,2 C -1,1 C 97 % 15 lf 1030,0 hPa 0,0 l/m 2 min 2 min 235 W/m 16,7 km/h (3 Bft) 95,74 %
28.11.2016 11:14 1,1 C 6,7 C -1,1 C 97 % 15 lf 1030,0 hPa 0,0 l/m 2 min 0 min 237 W/m 25,1 km/h (4 Bft) 95,74 %
28.11.2016 11:16 1,2 C 5,6 C -1,1 C 97 % 15 lf 1030,0 hPa 0,0 l/m 2 min 2 min 240 W/m 20,9 km/h (4 Bft) 95,74 %
28.11.2016 11:18 1,2 C 5,6 C -1,1 C 97 % 15 lf 1030,0 hPa 0,0 l/m 2 min 0 min 243 W/m 14,6 km/h (3 Bft) 97,87 %
28.11.2016 11:20 1,3 C 5,6 C -1,1 C 97 % 15 lf 1030,0 hPa 0,0 l/m 2 min 0 min 245 W/m 23,0 km/h (4 Bft) 100,00 %
28.11.2016 11:22 1,4 C 6,1 C -1,1 C 97 % 15 lf 1029,9 hPa 0,0 l/m 2 min 0 min 249 W/m 14,6 km/h (3 Bft) 100,00 %
28.11.2016 11:24 1,4 C 6,7 C -1,1 C 97 % 15 lf 1029,9 hPa 0,0 l/m 2 min 0 min 251 W/m 18,8 km/h (3 Bft) 97,87 %
28.11.2016 11:26 1,4 C 7,8 C -1,1 C 97 % 15 lf 1029,9 hPa 0,0 l/m 2 min 0 min 253 W/m 20,9 km/h (4 Bft) 95,74 %
28.11.2016 11:28 1,5 C 7,8 C -1,1 C 97 % 15 lf 1030,0 hPa 0,0 l/m 2 min 0 min 257 W/m 18,8 km/h (3 Bft) 95,74 %
28.11.2016 11:30 1,5 C 7,8 C -1,1 C 97 % 15 lf 1030,0 hPa 0,0 l/m 2 min 0 min 259 W/m 16,7 km/h (3 Bft) 97,87 %
28.11.2016 11:32 1,6 C 7,8 C -1,1 C 97 % 15 lf 1029,9 hPa 0,0 l/m 2 min 0 min 259 W/m 23,0 km/h (4 Bft) 95,74 %
28.11.2016 11:34 1,7 C 8,3 C -1,1 C 96 % 15 lf 1029,9 hPa 0,0 l/m 2 min 0 min 261 W/m 14,6 km/h (3 Bft) 95,65 %
28.11.2016 11:36 1,7 C 5,6 C -1,1 C 97 % 15 lf 1029,9 hPa 0,0 l/m 2 min 2 min 263 W/m 29,3 km/h (5 Bft) 100,00 %
28.11.2016 11:38 1,8 C 6,1 C -1,1 C 96 % 15 lf 1029,9 hPa 0,0 l/m 2 min 0 min 265 W/m 27,2 km/h (4 Bft) 97,87 %
28.11.2016 11:40 1,8 C 5,6 C -0,6 C 96 % 15 lf 1029,9 hPa 0,0 l/m 2 min 0 min 265 W/m 20,9 km/h (4 Bft) 100,00 %
28.11.2016 11:42 1,9 C 7,2 C -0,6 C 96 % 15 lf 1029,9 hPa 0,0 l/m 2 min 0 min 267 W/m 14,6 km/h (3 Bft) 100,00 %
28.11.2016 11:44 1,9 C 7,2 C -0,6 C 96 % 15 lf 1029,9 hPa 0,0 l/m 2 min 0 min 269 W/m 18,8 km/h (3 Bft) 100,00 %
28.11.2016 11:46 1,9 C 7,2 C -0,6 C 96 % 15 lf 1029,9 hPa 0,0 l/m 2 min 0 min 270 W/m 16,7 km/h (3 Bft) 97,87 %
28.11.2016 11:48 2,0 C 6,1 C -0,6 C 95 % 15 lf 1029,8 hPa 0,0 l/m 2 min 0 min 271 W/m 18,8 km/h (3 Bft) 93,62 %
28.11.2016 11:50 2,1 C 6,1 C -0,6 C 95 % 15 lf 1029,9 hPa 0,0 l/m 2 min 0 min 272 W/m 18,8 km/h (3 Bft) 97,87 %
28.11.2016 11:52 2,1 C 6,1 C -0,6 C 95 % 15 lf 1029,8 hPa 0,0 l/m 2 min 0 min 273 W/m 16,7 km/h (3 Bft) 95,74 %
28.11.2016 11:54 2,2 C 5,0 C -0,6 C 95 % 15 lf 1029,7 hPa 0,0 l/m 2 min 0 min 273 W/m 16,7 km/h (3 Bft) 95,74 %
28.11.2016 11:56 2,2 C 5,6 C -0,6 C 95 % 15 lf 1029,8 hPa 0,0 l/m 2 min 0 min 274 W/m 14,6 km/h (3 Bft) 95,65 %
28.11.2016 11:58 2,3 C 6,7 C 0,0 C 94 % 15 lf 1029,8 hPa 0,0 l/m 2 min 0 min 275 W/m 12,6 km/h (3 Bft) 91,49 %
28.11.2016 12:00 2,3 C 6,1 C 0,0 C 94 % 15 lf 1029,9 hPa 0,0 l/m 2 min 0 min 277 W/m 20,9 km/h (4 Bft) 95,74 %
28.11.2016 12:02 2,4 C 6,1 C 0,0 C 94 % 15 lf 1029,8 hPa 0,0 l/m 2 min 0 min 277 W/m 12,6 km/h (3 Bft) 95,74 %
28.11.2016 12:06 2,5 C 5,6 C 0,0 C 93 % 15 lf 1029,9 hPa 0,0 l/m 2 min 0 min 278 W/m 23,0 km/h (4 Bft) 92,63 %
28.11.2016 12:08 2,6 C 5,6 C 0,0 C 93 % 15 lf 1029,9 hPa 0,0 l/m 2 min 0 min 278 W/m 20,9 km/h (4 Bft) 93,48 %
28.11.2016 12:10 2,6 C 4,4 C 0,0 C 92 % 15 lf 1029,9 hPa 0,0 l/m 2 min 0 min 277 W/m 27,2 km/h (4 Bft) 91,49 %
28.11.2016 12:12 2,6 C 4,4 C 0,0 C 92 % 15 lf 1029,9 hPa 0,0 l/m 2 min 0 min 277 W/m 18,8 km/h (3 Bft) 91,49 %
28.11.2016 12:14 2,7 C 4,4 C 0,0 C 91 % 15 lf 1029,9 hPa 0,0 l/m 2 min 0 min 277 W/m 14,6 km/h (3 Bft) 89,36 %
28.11.2016 12:16 2,7 C 5,0 C 0,0 C 91 % 15 lf 1029,9 hPa 0,0 l/m 2 min 0 min 278 W/m 18,8 km/h (3 Bft) 93,62 %
28.11.2016 12:18 2,7 C 5,6 C 0,0 C 91 % 15 lf 1029,9 hPa 0,0 l/m 2 min 0 min 276 W/m 18,8 km/h (3 Bft) 89,36 %
28.11.2016 12:20 2,8 C 5,6 C 0,0 C 90 % 15 lf 1029,9 hPa 0,0 l/m 2 min 0 min 277 W/m 16,7 km/h (3 Bft) 93,48 %
28.11.2016 12:22 2,8 C 6,1 C 0,0 C 90 % 15 lf 1029,9 hPa 0,0 l/m 2 min 0 min 277 W/m 16,7 km/h (3 Bft) 93,62 %
28.11.2016 12:24 2,8 C 6,7 C 0,6 C 90 % 15 lf 1030,0 hPa 0,0 l/m 2 min 0 min 276 W/m 20,9 km/h (4 Bft) 93,62 %
28.11.2016 12:26 2,8 C 7,2 C 0,6 C 89 % 13 lf 1030,0 hPa 0,0 l/m 2 min 0 min 277 W/m 16,7 km/h (3 Bft) 93,62 %
28.11.2016 12:28 2,9 C 7,8 C 0,6 C 88 % 3 lf 1029,9 hPa 0,0 l/m 2 min 0 min 278 W/m 14,6 km/h (3 Bft) 93,62 %
28.11.2016 12:30 2,9 C 7,8 C 0,6 C 88 % 0 lf 1029,9 hPa 0,0 l/m 2 min 0 min 276 W/m 18,8 km/h (3 Bft) 89,13 %
28.11.2016 12:32 2,9 C 8,3 C 0,6 C 88 % 0 lf 1029,9 hPa 0,0 l/m 2 min 0 min 278 W/m 18,8 km/h (3 Bft) 91,49 %
28.11.2016 12:34 2,9 C 7,8 C 0,6 C 87 % 0 lf 1029,9 hPa 0,0 l/m 2 min 0 min 277 W/m 20,9 km/h (4 Bft) 93,62 %
28.11.2016 12:36 2,9 C 6,7 C 0,6 C 87 % 0 lf 1029,9 hPa 0,0 l/m 2 min 0 min 275 W/m 23,0 km/h (4 Bft) 91,49 %
28.11.2016 12:38 3,0 C 6,7 C 0,6 C 86 % 0 lf 1029,9 hPa 0,0 l/m 2 min 0 min 273 W/m 20,9 km/h (4 Bft) 93,62 %
28.11.2016 12:40 3,0 C 7,2 C 0,6 C 86 % 0 lf 1029,9 hPa 0,0 l/m 2 min 0 min 273 W/m 18,8 km/h (3 Bft) 93,62 %
28.11.2016 12:42 3,1 C 8,3 C 0,6 C 85 % 0 lf 1029,9 hPa 0,0 l/m 2 min 0 min 273 W/m 18,8 km/h (3 Bft) 95,65 %
28.11.2016 12:44 3,1 C 8,3 C 0,6 C 85 % 0 lf 1029,9 hPa 0,0 l/m 2 min 0 min 271 W/m 18,8 km/h (3 Bft) 95,74 %
28.11.2016 12:46 3,1 C 7,2 C 0,6 C 85 % 0 lf 1029,9 hPa 0,0 l/m 2 min 0 min 270 W/m 20,9 km/h (4 Bft) 93,62 %
28.11.2016 12:48 3,2 C 7,2 C 0,6 C 84 % 0 lf 1029,9 hPa 0,0 l/m 2 min 0 min 271 W/m 23,0 km/h (4 Bft) 95,74 %
28.11.2016 12:50 3,2 C 7,2 C 0,6 C 84 % 0 lf 1029,9 hPa 0,0 l/m 2 min 0 min 270 W/m 14,6 km/h (3 Bft) 95,74 %
28.11.2016 12:52 3,2 C 7,8 C 0,6 C 83 % 0 lf 1029,9 hPa 0,0 l/m 2 min 0 min 270 W/m 27,2 km/h (4 Bft) 97,87 %
28.11.2016 12:54 3,3 C 7,2 C 1,1 C 83 % 0 lf 1029,9 hPa 0,0 l/m 2 min 0 min 267 W/m 20,9 km/h (4 Bft) 95,65 %
28.11.2016 12:56 3,3 C 7,8 C 1,1 C 83 % 0 lf 1029,9 hPa 0,0 l/m 2 min 0 min 266 W/m 16,7 km/h (3 Bft) 100,00 %
28.11.2016 12:58 3,3 C 7,2 C 1,1 C 83 % 0 lf 1030,0 hPa 0,0 l/m 2 min 0 min 267 W/m 18,8 km/h (3 Bft) 97,87 %
28.11.2016 13:00 3,4 C 7,2 C 1,1 C 83 % 0 lf 1030,0 hPa 0,0 l/m 2 min 0 min 266 W/m 18,8 km/h (3 Bft) 97,87 %
28.11.2016 13:02 3,4 C 7,2 C 1,1 C 83 % 0 lf 1029,9 hPa 0,0 l/m 2 min 0 min 266 W/m 20,9 km/h (4 Bft) 97,87 %
28.11.2016 13:04 3,5 C 7,2 C 1,1 C 82 % 0 lf 1030,0 hPa 0,0 l/m 2 min 0 min 264 W/m 16,7 km/h (3 Bft) 95,74 %
28.11.2016 13:06 3,5 C 7,2 C 1,1 C 82 % 0 lf 1029,9 hPa 0,0 l/m 2 min 0 min 261 W/m 16,7 km/h (3 Bft) 100,00 %
28.11.2016 13:08 3,6 C 6,7 C 1,1 C 82 % 0 lf 1030,0 hPa 0,0 l/m 2 min 0 min 258 W/m 18,8 km/h (3 Bft) 95,74 %
28.11.2016 13:10 3,6 C 7,2 C 1,1 C 82 % 0 lf 1029,9 hPa 0,0 l/m 2 min 0 min 257 W/m 18,8 km/h (3 Bft) 100,00 %
28.11.2016 13:12 3,7 C 6,7 C 1,1 C 82 % 0 lf 1030,0 hPa 0,0 l/m 2 min 0 min 254 W/m 29,3 km/h (5 Bft) 95,74 %
28.11.2016 13:14 3,7 C 7,2 C 1,1 C 81 % 0 lf 1030,0 hPa 0,0 l/m 2 min 0 min 254 W/m 23,0 km/h (4 Bft) 97,87 %
28.11.2016 13:16 3,7 C 7,2 C 1,1 C 80 % 0 lf 1030,0 hPa 0,0 l/m 2 min 0 min 252 W/m 25,1 km/h (4 Bft) 97,87 %
28.11.2016 13:18 3,7 C 7,2 C 1,1 C 80 % 0 lf 1030,0 hPa 0,0 l/m 2 min 0 min 249 W/m 23,0 km/h (4 Bft) 97,83 %
28.11.2016 13:20 3,7 C 7,8 C 1,1 C 80 % 0 lf 1030,1 hPa 0,0 l/m 2 min 0 min 246 W/m 16,7 km/h (3 Bft) 100,00 %
28.11.2016 13:22 3,8 C 8,3 C 1,1 C 80 % 0 lf 1030,0 hPa 0,0 l/m 2 min 0 min 244 W/m 23,0 km/h (4 Bft) 100,00 %
28.11.2016 13:24 3,8 C 8,3 C 1,1 C 80 % 0 lf 1030,0 hPa 0,0 l/m 2 min 0 min 240 W/m 29,3 km/h (5 Bft) 97,87 %
28.11.2016 13:26 3,8 C 8,9 C 1,1 C 79 % 0 lf 1030,0 hPa 0,0 l/m 2 min 0 min 239 W/m 20,9 km/h (4 Bft) 97,87 %
28.11.2016 13:28 3,9 C 8,3 C 1,1 C 79 % 0 lf 1030,0 hPa 0,0 l/m 2 min 0 min 236 W/m 16,7 km/h (3 Bft) 95,74 %
28.11.2016 13:30 3,9 C 7,8 C 1,1 C 79 % 0 lf 1030,0 hPa 0,0 l/m 2 min 0 min 234 W/m 20,9 km/h (4 Bft) 95,65 %
28.11.2016 13:32 3,9 C 8,3 C 1,7 C 79 % 0 lf 1030,1 hPa 0,0 l/m 2 min 0 min 235 W/m 16,7 km/h (3 Bft) 93,62 %
28.11.2016 13:34 3,9 C 8,9 C 1,7 C 78 % 0 lf 1030,1 hPa 0,0 l/m 2 min 0 min 231 W/m 18,8 km/h (3 Bft) 97,87 %
28.11.2016 13:36 4,0 C 8,9 C 1,7 C 78 % 0 lf 1030,1 hPa 0,0 l/m 2 min 0 min 268 W/m 20,9 km/h (4 Bft) 97,87 %
28.11.2016 13:38 4,1 C 10,0 C 1,7 C 78 % 0 lf 1030,1 hPa 0,0 l/m 2 min 0 min 319 W/m 12,6 km/h (3 Bft) 97,87 %
28.11.2016 13:40 4,1 C 11,1 C 1,7 C 77 % 0 lf 1030,1 hPa 0,0 l/m 2 min 0 min 229 W/m 20,9 km/h (4 Bft) 97,87 %
28.11.2016 13:42 4,1 C 10,6 C 1,7 C 77 % 0 lf 1030,1 hPa 0,0 l/m 2 min 0 min 226 W/m 25,1 km/h (4 Bft) 95,65 %
28.11.2016 13:44 4,1 C 10,0 C 1,7 C 77 % 0 lf 1030,1 hPa 0,0 l/m 2 min 0 min 224 W/m 20,9 km/h (4 Bft) 97,87 %
28.11.2016 13:46 4,2 C 10,0 C 1,7 C 76 % 0 lf 1030,1 hPa 0,0 l/m 2 min 0 min 225 W/m 18,8 km/h (3 Bft) 95,74 %
28.11.2016 13:48 4,2 C 10,0 C 1,7 C 76 % 0 lf 1030,1 hPa 0,0 l/m 2 min 0 min 224 W/m 29,3 km/h (5 Bft) 95,74 %
28.11.2016 13:50 4,2 C 10,6 C 1,7 C 75 % 0 lf 1030,0 hPa 0,0 l/m 2 min 0 min 223 W/m 25,1 km/h (4 Bft) 97,87 %
28.11.2016 13:52 4,3 C 11,1 C 1,7 C 75 % 0 lf 1030,1 hPa 0,0 l/m 2 min 0 min 217 W/m 23,0 km/h (4 Bft) 97,83 %
28.11.2016 13:54 4,3 C 11,1 C 1,7 C 74 % 0 lf 1030,1 hPa 0,0 l/m 2 min 0 min 215 W/m 25,1 km/h (4 Bft) 91,49 %
28.11.2016 13:56 4,3 C 10,0 C 1,7 C 73 % 0 lf 1030,1 hPa 0,0 l/m 2 min 0 min 210 W/m 20,9 km/h (4 Bft) 93,88 %
28.11.2016 13:58 4,3 C 11,1 C 1,7 C 73 % 0 lf 1030,1 hPa 0,0 l/m 2 min 0 min 206 W/m 25,1 km/h (4 Bft) 97,87 %
28.11.2016 14:00 4,4 C 11,7 C 1,7 C 72 % 0 lf 1030,1 hPa 0,0 l/m 2 min 0 min 203 W/m 20,9 km/h (4 Bft) 97,83 %
28.11.2016 14:02 4,4 C 10,6 C 1,7 C 72 % 0 lf 1030,1 hPa 0,0 l/m 2 min 0 min 198 W/m 31,4 km/h (5 Bft) 93,62 %
28.11.2016 14:04 4,4 C 11,1 C 2,2 C 71 % 0 lf 1030,1 hPa 0,0 l/m 2 min 0 min 195 W/m 29,3 km/h (5 Bft) 93,62 %
28.11.2016 14:06 4,3 C 11,7 C 2,2 C 71 % 0 lf 1030,0 hPa 0,0 l/m 2 min 0 min 194 W/m 29,3 km/h (5 Bft) 91,49 %
28.11.2016 14:08 4,3 C 10,6 C 2,2 C 71 % 0 lf 1030,1 hPa 0,0 l/m 2 min 0 min 188 W/m 20,9 km/h (4 Bft) 95,74 %
28.11.2016 14:10 4,4 C 9,4 C 2,2 C 70 % 0 lf 1030,1 hPa 0,0 l/m 2 min 0 min 186 W/m 20,9 km/h (4 Bft) 95,74 %
28.11.2016 14:12 4,4 C 9,4 C 2,2 C 69 % 0 lf 1030,1 hPa 0,0 l/m 2 min 0 min 183 W/m 20,9 km/h (4 Bft) 89,13 %
28.11.2016 14:14 4,4 C 9,4 C 2,2 C 69 % 0 lf 1030,1 hPa 0,0 l/m 2 min 0 min 180 W/m 29,3 km/h (5 Bft) 95,74 %
28.11.2016 14:16 4,4 C 9,4 C 2,2 C 69 % 0 lf 1030,1 hPa 0,0 l/m 2 min 0 min 176 W/m 23,0 km/h (4 Bft) 93,62 %
28.11.2016 14:18 4,4 C 10,0 C 2,2 C 69 % 0 lf 1030,2 hPa 0,0 l/m 2 min 0 min 173 W/m 18,8 km/h (3 Bft) 95,74 %
28.11.2016 14:20 4,4 C 9,4 C 2,2 C 69 % 0 lf 1030,2 hPa 0,0 l/m 2 min 0 min 171 W/m 31,4 km/h (5 Bft) 95,74 %
28.11.2016 14:22 4,4 C 8,3 C 2,2 C 68 % 0 lf 1030,2 hPa 0,0 l/m 2 min 0 min 167 W/m 29,3 km/h (5 Bft) 95,74 %
28.11.2016 14:24 4,4 C 10,0 C 2,2 C 68 % 0 lf 1030,2 hPa 0,0 l/m 2 min 0 min 164 W/m 12,6 km/h (3 Bft) 89,13 %
28.11.2016 14:26 4,4 C 10,0 C 2,2 C 68 % 0 lf 1030,2 hPa 0,0 l/m 2 min 0 min 159 W/m 20,9 km/h (4 Bft) 93,62 %
28.11.2016 14:28 4,4 C 8,9 C 2,2 C 68 % 0 lf 1030,2 hPa 0,0 l/m 2 min 0 min 156 W/m 23,0 km/h (4 Bft) 91,49 %
28.11.2016 14:30 4,4 C 7,2 C 2,2 C 68 % 0 lf 1030,3 hPa 0,0 l/m 2 min 0 min 153 W/m 23,0 km/h (4 Bft) 93,62 %
28.11.2016 14:32 4,4 C 6,1 C 2,2 C 68 % 0 lf 1030,3 hPa 0,0 l/m 2 min 0 min 149 W/m 25,1 km/h (4 Bft) 91,49 %
28.11.2016 14:34 4,4 C 5,0 C 2,2 C 68 % 0 lf 1030,3 hPa 0,0 l/m 2 min 0 min 145 W/m 20,9 km/h (4 Bft) 93,62 %
28.11.2016 14:36 4,4 C 5,0 C 2,2 C 68 % 0 lf 1030,3 hPa 0,0 l/m 2 min 0 min 142 W/m 18,8 km/h (3 Bft) 95,65 %
28.11.2016 14:38 4,4 C 4,4 C 2,2 C 68 % 0 lf 1030,3 hPa 0,0 l/m 2 min 0 min 138 W/m 18,8 km/h (3 Bft) 87,23 %
28.11.2016 14:40 4,3 C 4,4 C 2,2 C 67 % 0 lf 1030,3 hPa 0,0 l/m 2 min 0 min 135 W/m 23,0 km/h (4 Bft) 97,87 %
28.11.2016 14:42 4,2 C 4,4 C 2,2 C 67 % 0 lf 1030,3 hPa 0,0 l/m 2 min 0 min 132 W/m 23,0 km/h (4 Bft) 93,62 %
28.11.2016 14:44 4,2 C 3,9 C 1,7 C 68 % 0 lf 1030,3 hPa 0,0 l/m 2 min 0 min 128 W/m 20,9 km/h (4 Bft) 95,74 %
28.11.2016 14:46 4,2 C 3,9 C 2,2 C 68 % 0 lf 1030,3 hPa 0,0 l/m 2 min 0 min 125 W/m 23,0 km/h (4 Bft) 95,74 %
28.11.2016 14:48 4,1 C 3,9 C 1,7 C 67 % 0 lf 1030,3 hPa 0,0 l/m 2 min 0 min 121 W/m 20,9 km/h (4 Bft) 95,65 %
28.11.2016 14:50 4,1 C 3,9 C 1,7 C 68 % 0 lf 1030,3 hPa 0,0 l/m 2 min 0 min 117 W/m 20,9 km/h (4 Bft) 93,62 %
28.11.2016 14:52 3,9 C 3,9 C 1,7 C 68 % 0 lf 1030,3 hPa 0,0 l/m 2 min 0 min 114 W/m 23,0 km/h (4 Bft) 97,87 %
28.11.2016 14:54 3,9 C 3,9 C 1,7 C 68 % 0 lf 1030,4 hPa 0,0 l/m 2 min 0 min 111 W/m 23,0 km/h (4 Bft) 93,62 %
28.11.2016 14:56 3,8 C 3,9 C 1,7 C 68 % 0 lf 1030,3 hPa 0,0 l/m 2 min 0 min 106 W/m 16,7 km/h (3 Bft) 95,74 %
28.11.2016 14:58 3,8 C 4,4 C 1,7 C 69 % 0 lf 1030,3 hPa 0,0 l/m 2 min 0 min 104 W/m 20,9 km/h (4 Bft) 93,48 %
28.11.2016 15:00 3,7 C 4,4 C 1,7 C 69 % 0 lf 1030,3 hPa 0,0 l/m 2 min 0 min 100 W/m 20,9 km/h (4 Bft) 95,74 %
28.11.2016 15:02 3,7 C 5,0 C 1,7 C 69 % 0 lf 1030,3 hPa 0,0 l/m 2 min 0 min 96 W/m 10,5 km/h (2 Bft) 95,74 %
28.11.2016 15:04 3,7 C 5,0 C 1,1 C 70 % 0 lf 1030,3 hPa 0,0 l/m 2 min 0 min 92 W/m 14,6 km/h (3 Bft) 97,87 %
28.11.2016 15:06 3,6 C 5,0 C 1,7 C 70 % 0 lf 1030,4 hPa 0,0 l/m 2 min 0 min 89 W/m 16,7 km/h (3 Bft) 95,74 %
28.11.2016 15:08 3,6 C 5,0 C 1,7 C 70 % 0 lf 1030,4 hPa 0,0 l/m 2 min 0 min 86 W/m 18,8 km/h (3 Bft) 97,87 %
28.11.2016 15:10 3,6 C 5,0 C 1,7 C 70 % 0 lf 1030,3 hPa 0,0 l/m 2 min 0 min 83 W/m 23,0 km/h (4 Bft) 97,83 %
28.11.2016 15:12 3,5 C 4,4 C 1,1 C 70 % 0 lf 1030,4 hPa 0,0 l/m 2 min 0 min 79 W/m 16,7 km/h (3 Bft) 95,74 %
28.11.2016 15:14 3,4 C 4,4 C 1,1 C 70 % 0 lf 1030,4 hPa 0,0 l/m 2 min 0 min 76 W/m 27,2 km/h (4 Bft) 93,62 %
28.11.2016 15:16 3,4 C 3,9 C 1,1 C 70 % 0 lf 1030,4 hPa 0,0 l/m 2 min 0 min 72 W/m 16,7 km/h (3 Bft) 93,62 %
28.11.2016 15:18 3,4 C 3,9 C 1,1 C 70 % 0 lf 1030,5 hPa 0,0 l/m 2 min 0 min 69 W/m 20,9 km/h (4 Bft) 97,87 %
28.11.2016 15:20 3,3 C 3,3 C 1,1 C 70 % 0 lf 1030,5 hPa 0,0 l/m 0 min 0 min 65 W/m 18,8 km/h (3 Bft) 93,62 %
28.11.2016 15:22 3,3 C 3,3 C 1,1 C 71 % 0 lf 1030,4 hPa 0,0 l/m 0 min 0 min 62 W/m 16,7 km/h (3 Bft) 95,65 %
28.11.2016 15:24 3,3 C 3,3 C 1,1 C 71 % 0 lf 1030,5 hPa 0,0 l/m 0 min 0 min 57 W/m 23,0 km/h (4 Bft) 95,74 %
28.11.2016 15:26 3,2 C 3,3 C 1,1 C 70 % 0 lf 1030,5 hPa 0,0 l/m 0 min 0 min 55 W/m 27,2 km/h (4 Bft) 95,74 %
28.11.2016 15:28 3,2 C 3,3 C 1,1 C 70 % 0 lf 1030,5 hPa 0,0 l/m 0 min 0 min 52 W/m 27,2 km/h (4 Bft) 97,87 %
28.11.2016 15:30 3,1 C 3,3 C 1,1 C 70 % 0 lf 1030,5 hPa 0,0 l/m 0 min 0 min 48 W/m 29,3 km/h (5 Bft) 93,62 %
28.11.2016 15:32 3,1 C 3,3 C 1,1 C 70 % 0 lf 1030,6 hPa 0,0 l/m 0 min 0 min 46 W/m 23,0 km/h (4 Bft) 97,87 %
28.11.2016 15:34 3,0 C 2,8 C 1,1 C 70 % 0 lf 1030,7 hPa 0,0 l/m 0 min 0 min 43 W/m 20,9 km/h (4 Bft) 95,65 %
28.11.2016 15:36 3,0 C 2,8 C 1,1 C 70 % 0 lf 1030,6 hPa 0,0 l/m 0 min 0 min 41 W/m 27,2 km/h (4 Bft) 95,74 %
28.11.2016 15:38 2,9 C 2,8 C 1,1 C 70 % 0 lf 1030,6 hPa 0,0 l/m 0 min 0 min 39 W/m 18,8 km/h (3 Bft) 97,87 %
28.11.2016 15:40 2,9 C 2,8 C 0,6 C 71 % 0 lf 1030,6 hPa 0,0 l/m 0 min 0 min 37 W/m 25,1 km/h (4 Bft) 97,87 %
28.11.2016 15:42 2,9 C 2,8 C 0,6 C 71 % 0 lf 1030,6 hPa 0,0 l/m 0 min 0 min 36 W/m 20,9 km/h (4 Bft) 95,74 %
28.11.2016 15:44 2,8 C 2,8 C 0,6 C 71 % 0 lf 1030,7 hPa 0,0 l/m 0 min 0 min 35 W/m 20,9 km/h (4 Bft) 97,87 %
28.11.2016 15:46 2,8 C 2,8 C 0,6 C 71 % 0 lf 1030,7 hPa 0,0 l/m 0 min 0 min 35 W/m 23,0 km/h (4 Bft) 97,83 %
28.11.2016 15:48 2,8 C 2,8 C 0,6 C 71 % 0 lf 1030,7 hPa 0,0 l/m 0 min 0 min 33 W/m 16,7 km/h (3 Bft) 95,74 %
28.11.2016 15:50 2,7 C 2,2 C 0,6 C 71 % 0 lf 1030,7 hPa 0,0 l/m 0 min 0 min 32 W/m 25,1 km/h (4 Bft) 97,87 %
28.11.2016 15:52 2,7 C 2,2 C 0,6 C 71 % 0 lf 1030,8 hPa 0,0 l/m 0 min 0 min 30 W/m 23,0 km/h (4 Bft) 95,74 %
28.11.2016 15:54 2,6 C 2,2 C 0,0 C 72 % 0 lf 1030,8 hPa 0,0 l/m 0 min 0 min 30 W/m 18,8 km/h (3 Bft) 97,87 %
28.11.2016 15:56 2,6 C 2,2 C 0,0 C 72 % 0 lf 1030,8 hPa 0,0 l/m 0 min 0 min 28 W/m 18,8 km/h (3 Bft) 93,48 %
28.11.2016 15:58 2,6 C 2,2 C 0,0 C 72 % 0 lf 1030,8 hPa 0,0 l/m 0 min 0 min 28 W/m 20,9 km/h (4 Bft) 97,87 %
28.11.2016 16:00 2,5 C 2,2 C 0,0 C 72 % 0 lf 1030,7 hPa 0,0 l/m 2 min 0 min 28 W/m 18,8 km/h (3 Bft) 100,00 %
28.11.2016 16:02 2,4 C 2,2 C 0,0 C 72 % 0 lf 1030,7 hPa 0,0 l/m 2 min 0 min 26 W/m 16,7 km/h (3 Bft) 97,87 %
28.11.2016 16:04 2,4 C 2,2 C 0,0 C 73 % 0 lf 1030,7 hPa 0,0 l/m 2 min 0 min 26 W/m 20,9 km/h (4 Bft) 95,74 %
28.11.2016 16:06 2,4 C 2,2 C 0,0 C 73 % 0 lf 1030,8 hPa 0,0 l/m 2 min 0 min 26 W/m 18,8 km/h (3 Bft) 100,00 %
28.11.2016 16:08 2,4 C 2,2 C 0,0 C 73 % 0 lf 1030,8 hPa 0,0 l/m 2 min 0 min 25 W/m 20,9 km/h (4 Bft) 100,00 %
28.11.2016 16:10 2,3 C 1,7 C 0,0 C 72 % 0 lf 1030,8 hPa 0,0 l/m 2 min 0 min 25 W/m 23,0 km/h (4 Bft) 100,00 %
28.11.2016 16:12 2,3 C 1,7 C 0,0 C 72 % 0 lf 1030,8 hPa 0,0 l/m 2 min 0 min 25 W/m 16,7 km/h (3 Bft) 100,00 %
28.11.2016 16:14 2,2 C 1,7 C 0,0 C 72 % 0 lf 1030,7 hPa 0,0 l/m 2 min 0 min 25 W/m 23,0 km/h (4 Bft) 100,00 %
28.11.2016 16:16 2,2 C 1,7 C 0,0 C 72 % 0 lf 1030,8 hPa 0,0 l/m 2 min 0 min 23 W/m 20,9 km/h (4 Bft) 100,00 %
28.11.2016 16:18 2,2 C 1,7 C -0,6 C 73 % 0 lf 1030,8 hPa 0,0 l/m 2 min 0 min 22 W/m 14,6 km/h (3 Bft) 95,74 %
28.11.2016 16:20 2,1 C 1,7 C -0,6 C 73 % 0 lf 1030,8 hPa 0,0 l/m 0 min 0 min 21 W/m 14,6 km/h (3 Bft) 97,83 %
28.11.2016 16:22 2,1 C 1,7 C -0,6 C 73 % 0 lf 1030,8 hPa 0,0 l/m 0 min 0 min 19 W/m 8,4 km/h (2 Bft) 97,87 %
28.11.2016 16:24 2,1 C 1,1 C -0,6 C 73 % 0 lf 1030,9 hPa 0,0 l/m 0 min 0 min 19 W/m 10,5 km/h (2 Bft) 97,87 %
28.11.2016 16:26 2,0 C 1,1 C -1,1 C 73 % 0 lf 1030,9 hPa 0,0 l/m 0 min 0 min 18 W/m 12,6 km/h (3 Bft) 97,87 %
28.11.2016 16:28 2,0 C 1,1 C -1,1 C 73 % 0 lf 1031,0 hPa 0,0 l/m 0 min 0 min 18 W/m 12,6 km/h (3 Bft) 95,74 %
28.11.2016 16:30 1,9 C 1,1 C -1,1 C 73 % 0 lf 1030,9 hPa 0,0 l/m 0 min 0 min 16 W/m 10,5 km/h (2 Bft) 97,87 %
28.11.2016 16:32 1,9 C 1,1 C -1,7 C 73 % 0 lf 1030,9 hPa 0,0 l/m 0 min 0 min 16 W/m 12,6 km/h (3 Bft) 100,00 %
28.11.2016 16:34 1,9 C 1,1 C -1,7 C 74 % 0 lf 1031,0 hPa 0,0 l/m 0 min 0 min 15 W/m 12,6 km/h (3 Bft) 97,87 %
28.11.2016 16:36 1,9 C 0,6 C -1,7 C 74 % 0 lf 1031,0 hPa 0,0 l/m 0 min 0 min 14 W/m 10,5 km/h (2 Bft) 100,00 %
28.11.2016 16:38 1,8 C 0,6 C -1,7 C 74 % 0 lf 1031,0 hPa 0,0 l/m 0 min 0 min 14 W/m 14,6 km/h (3 Bft) 93,62 %
28.11.2016 16:40 1,8 C 0,6 C -1,7 C 74 % 0 lf 1031,0 hPa 0,0 l/m 0 min 0 min 13 W/m 12,6 km/h (3 Bft) 100,00 %
28.11.2016 16:42 1,7 C 0,6 C -1,1 C 74 % 0 lf 1031,0 hPa 0,0 l/m 0 min 0 min 12 W/m 12,6 km/h (3 Bft) 97,87 %
28.11.2016 16:44 1,7 C 0,6 C -1,1 C 75 % 0 lf 1031,0 hPa 0,0 l/m 0 min 0 min 12 W/m 14,6 km/h (3 Bft) 97,83 %
28.11.2016 16:46 1,7 C 1,1 C -1,1 C 75 % 0 lf 1031,0 hPa 0,0 l/m 0 min 0 min 11 W/m 23,0 km/h (4 Bft) 95,74 %
28.11.2016 16:48 1,6 C 1,1 C -1,1 C 75 % 0 lf 1031,0 hPa 0,0 l/m 0 min 0 min 11 W/m 12,6 km/h (3 Bft) 100,00 %
28.11.2016 16:50 1,6 C 1,1 C -1,1 C 75 % 0 lf 1031,0 hPa 0,0 l/m 0 min 0 min 0 W/m 12,6 km/h (3 Bft) 100,00 %
28.11.2016 16:52 1,5 C 1,1 C -1,1 C 76 % 0 lf 1031,0 hPa 0,0 l/m 0 min 0 min 0 W/m 18,8 km/h (3 Bft) 100,00 %
28.11.2016 16:54 1,5 C 1,1 C -1,1 C 76 % 0 lf 1031,0 hPa 0,0 l/m 0 min 0 min 0 W/m 14,6 km/h (3 Bft) 97,87 %
28.11.2016 16:56 1,4 C 1,1 C -1,1 C 76 % 0 lf 1031,0 hPa 0,0 l/m 0 min 0 min 0 W/m 16,7 km/h (3 Bft) 95,65 %
28.11.2016 16:58 1,4 C 0,6 C -1,1 C 76 % 0 lf 1031,0 hPa 0,0 l/m 0 min 0 min 0 W/m 18,8 km/h (3 Bft) 100,00 %
28.11.2016 17:00 1,4 C 0,6 C -1,1 C 76 % 0 lf 1031,0 hPa 0,0 l/m 0 min 0 min 0 W/m 14,6 km/h (3 Bft) 97,87 %
28.11.2016 17:02 1,4 C 0,6 C -1,1 C 76 % 0 lf 1031,0 hPa 0,0 l/m 0 min 0 min 0 W/m 18,8 km/h (3 Bft) 93,62 %
28.11.2016 17:04 1,3 C 0,6 C -1,1 C 76 % 0 lf 1031,0 hPa 0,0 l/m 0 min 0 min 0 W/m 18,8 km/h (3 Bft) 97,87 %
28.11.2016 17:06 1,3 C 0,6 C -1,1 C 76 % 0 lf 1031,0 hPa 0,0 l/m 0 min 0 min 0 W/m 20,9 km/h (4 Bft) 95,65 %
28.11.2016 17:08 1,2 C 1,1 C -1,1 C 76 % 0 lf 1031,0 hPa 0,0 l/m 0 min 0 min 0 W/m 20,9 km/h (4 Bft) 97,87 %
28.11.2016 17:10 1,2 C 1,1 C -1,1 C 76 % 0 lf 1031,0 hPa 0,0 l/m 0 min 0 min 0 W/m 18,8 km/h (3 Bft) 91,49 %
28.11.2016 17:12 1,2 C 1,1 C -1,1 C 76 % 0 lf 1031,0 hPa 0,0 l/m 0 min 0 min 0 W/m 23,0 km/h (4 Bft) 95,74 %
28.11.2016 17:14 1,2 C 1,1 C -1,1 C 76 % 0 lf 1031,0 hPa 0,0 l/m 0 min 0 min 0 W/m 25,1 km/h (4 Bft) 88,57 %
28.11.2016 17:16 1,2 C 1,1 C -0,6 C 76 % 0 lf 1031,0 hPa 0,0 l/m 0 min 0 min 0 W/m 25,1 km/h (4 Bft) 96,67 %
28.11.2016 17:18 1,2 C 1,1 C -0,6 C 76 % 0 lf 1031,0 hPa 0,0 l/m 0 min 0 min 0 W/m 18,8 km/h (3 Bft) 95,65 %
28.11.2016 17:20 1,1 C 1,1 C -0,6 C 76 % 0 lf 1031,1 hPa 0,0 l/m 0 min 0 min 0 W/m 18,8 km/h (3 Bft) 93,62 %
28.11.2016 17:22 1,1 C 1,1 C -1,1 C 76 % 0 lf 1031,2 hPa 0,0 l/m 0 min 0 min 0 W/m 20,9 km/h (4 Bft) 91,49 %
28.11.2016 17:24 1,1 C 0,6 C -1,1 C 76 % 0 lf 1031,3 hPa 0,0 l/m 0 min 0 min 0 W/m 8,4 km/h (2 Bft) 95,74 %
28.11.2016 17:26 1,1 C 0,6 C -1,7 C 76 % 0 lf 1031,3 hPa 0,0 l/m 0 min 0 min 0 W/m 16,7 km/h (3 Bft) 93,62 %
28.11.2016 17:28 1,1 C 0,6 C -1,7 C 76 % 0 lf 1031,4 hPa 0,0 l/m 0 min 0 min 0 W/m 14,6 km/h (3 Bft) 91,49 %
28.11.2016 17:30 1,1 C 0,6 C -1,7 C 76 % 0 lf 1031,2 hPa 0,0 l/m 0 min 0 min 0 W/m 12,6 km/h (3 Bft) 91,30 %
28.11.2016 17:32 1,1 C 0,6 C -1,7 C 76 % 0 lf 1031,3 hPa 0,0 l/m 0 min 0 min 0 W/m 14,6 km/h (3 Bft) 91,49 %
28.11.2016 17:34 1,0 C 0,6 C -1,1 C 76 % 0 lf 1031,2 hPa 0,0 l/m 0 min 0 min 0 W/m 16,7 km/h (3 Bft) 91,49 %
28.11.2016 17:36 1,0 C 0,6 C -1,7 C 76 % 0 lf 1031,2 hPa 0,0 l/m 0 min 0 min 0 W/m 8,4 km/h (2 Bft) 91,49 %
28.11.2016 17:38 1,0 C 0,0 C -1,7 C 76 % 0 lf 1031,2 hPa 0,0 l/m 0 min 0 min 0 W/m 8,4 km/h (2 Bft) 91,49 %
28.11.2016 17:40 1,0 C 0,0 C -1,7 C 76 % 0 lf 1031,3 hPa 0,0 l/m 0 min 0 min 0 W/m 6,3 km/h (2 Bft) 91,49 %
28.11.2016 17:42 0,9 C 0,0 C -2,2 C 76 % 0 lf 1031,3 hPa 0,0 l/m 0 min 0 min 0 W/m 8,4 km/h (2 Bft) 91,30 %
28.11.2016 17:44 0,9 C 0,0 C -2,2 C 77 % 0 lf 1031,3 hPa 0,0 l/m 0 min 0 min 0 W/m 8,4 km/h (2 Bft) 89,36 %
28.11.2016 17:46 0,9 C 0,0 C -2,2 C 77 % 0 lf 1031,3 hPa 0,0 l/m 0 min 0 min 0 W/m 12,6 km/h (3 Bft) 91,49 %
28.11.2016 17:48 0,9 C 0,0 C -2,2 C 77 % 0 lf 1031,3 hPa 0,0 l/m 0 min 0 min 0 W/m 10,5 km/h (2 Bft) 89,36 %
28.11.2016 17:50 0,8 C 0,0 C -2,2 C 77 % 0 lf 1031,4 hPa 0,0 l/m 0 min 0 min 0 W/m 12,6 km/h (3 Bft) 93,62 %
28.11.2016 17:52 0,8 C 0,0 C -2,2 C 77 % 0 lf 1031,5 hPa 0,0 l/m 0 min 0 min 0 W/m 8,4 km/h (2 Bft) 93,62 %
28.11.2016 17:54 0,8 C 0,0 C -2,2 C 77 % 0 lf 1031,5 hPa 0,0 l/m 0 min 0 min 0 W/m 16,7 km/h (3 Bft) 95,65 %
28.11.2016 17:56 0,7 C 0,0 C -2,2 C 78 % 0 lf 1031,5 hPa 0,0 l/m 0 min 0 min 0 W/m 10,5 km/h (2 Bft) 95,74 %
28.11.2016 17:58 0,7 C 0,0 C -2,2 C 78 % 0 lf 1031,5 hPa 0,0 l/m 0 min 0 min 0 W/m 14,6 km/h (3 Bft) 97,87 %
28.11.2016 18:00 0,7 C 0,0 C -2,2 C 78 % 0 lf 1031,6 hPa 0,0 l/m 0 min 0 min 0 W/m 18,8 km/h (3 Bft) 93,62 %
28.11.2016 18:02 0,6 C 0,0 C -2,2 C 78 % 0 lf 1031,6 hPa 0,0 l/m 0 min 0 min 0 W/m 16,7 km/h (3 Bft) 97,87 %
28.11.2016 18:06 0,6 C 0,0 C -1,7 C 79 % 0 lf 1031,6 hPa 0,0 l/m 0 min 0 min 0 W/m 14,6 km/h (3 Bft) 98,92 %
28.11.2016 18:08 0,5 C 0,0 C -1,7 C 80 % 0 lf 1031,6 hPa 0,0 l/m 0 min 0 min 0 W/m 14,6 km/h (3 Bft) 93,62 %
28.11.2016 18:10 0,5 C 0,0 C -1,7 C 80 % 0 lf 1031,5 hPa 0,0 l/m 0 min 0 min 0 W/m 14,6 km/h (3 Bft) 97,87 %
28.11.2016 18:12 0,5 C 0,0 C -2,2 C 80 % 0 lf 1031,6 hPa 0,0 l/m 0 min 0 min 0 W/m 16,7 km/h (3 Bft) 95,74 %
28.11.2016 18:14 0,5 C 0,0 C -2,2 C 80 % 0 lf 1031,7 hPa 0,0 l/m 0 min 0 min 0 W/m 18,8 km/h (3 Bft) 97,87 %
28.11.2016 18:16 0,5 C 0,0 C -2,2 C 81 % 0 lf 1031,7 hPa 0,0 l/m 0 min 0 min 0 W/m 16,7 km/h (3 Bft) 97,83 %
28.11.2016 18:18 0,5 C 0,0 C -2,2 C 81 % 0 lf 1031,7 hPa 0,0 l/m 0 min 0 min 0 W/m 14,6 km/h (3 Bft) 95,74 %
28.11.2016 18:20 0,5 C 0,0 C -1,7 C 81 % 0 lf 1031,8 hPa 0,0 l/m 0 min 0 min 0 W/m 16,7 km/h (3 Bft) 95,74 %
28.11.2016 18:22 0,4 C 0,0 C -2,2 C 81 % 0 lf 1031,7 hPa 0,0 l/m 0 min 0 min 0 W/m 14,6 km/h (3 Bft) 95,74 %
28.11.2016 18:24 0,4 C 0,0 C -1,7 C 81 % 0 lf 1031,7 hPa 0,0 l/m 0 min 0 min 0 W/m 20,9 km/h (4 Bft) 97,87 %
28.11.2016 18:26 0,4 C 0,0 C -1,7 C 81 % 0 lf 1031,8 hPa 0,0 l/m 0 min 0 min 0 W/m 18,8 km/h (3 Bft) 95,74 %
28.11.2016 18:28 0,4 C 0,0 C -1,7 C 82 % 0 lf 1031,8 hPa 0,0 l/m 0 min 0 min 0 W/m 18,8 km/h (3 Bft) 95,65 %
28.11.2016 18:30 0,4 C 0,0 C -1,7 C 82 % 0 lf 1031,8 hPa 0,0 l/m 0 min 0 min 0 W/m 18,8 km/h (3 Bft) 95,74 %
28.11.2016 18:32 0,3 C 0,0 C -1,7 C 82 % 0 lf 1031,8 hPa 0,0 l/m 0 min 0 min 0 W/m 16,7 km/h (3 Bft) 97,87 %
28.11.2016 18:34 0,3 C 0,0 C -1,7 C 82 % 0 lf 1031,8 hPa 0,0 l/m 0 min 0 min 0 W/m 20,9 km/h (4 Bft) 97,87 %
28.11.2016 18:36 0,3 C 0,0 C -1,7 C 82 % 0 lf 1031,9 hPa 0,0 l/m 0 min 0 min 0 W/m 18,8 km/h (3 Bft) 95,74 %
28.11.2016 18:38 0,3 C 0,0 C -1,7 C 82 % 0 lf 1031,9 hPa 0,0 l/m 0 min 0 min 0 W/m 14,6 km/h (3 Bft) 97,87 %
28.11.2016 18:40 0,3 C 0,0 C -1,7 C 82 % 0 lf 1031,9 hPa 0,0 l/m 0 min 0 min 0 W/m 18,8 km/h (3 Bft) 95,65 %
28.11.2016 18:42 0,3 C 0,0 C -1,7 C 82 % 0 lf 1031,9 hPa 0,0 l/m 0 min 0 min 0 W/m 16,7 km/h (3 Bft) 97,87 %
28.11.2016 18:44 0,3 C 0,0 C -1,7 C 82 % 0 lf 1031,9 hPa 0,0 l/m 0 min 0 min 0 W/m 18,8 km/h (3 Bft) 95,74 %
28.11.2016 18:46 0,2 C 0,0 C -1,7 C 83 % 0 lf 1031,9 hPa 0,0 l/m 0 min 0 min 0 W/m 18,8 km/h (3 Bft) 100,00 %
28.11.2016 18:48 0,2 C 0,0 C -1,7 C 83 % 0 lf 1032,0 hPa 0,0 l/m 0 min 0 min 0 W/m 14,6 km/h (3 Bft) 100,00 %
28.11.2016 18:50 0,2 C 0,0 C -1,7 C 83 % 0 lf 1032,0 hPa 0,0 l/m 0 min 0 min 0 W/m 16,7 km/h (3 Bft) 95,74 %
28.11.2016 18:52 0,2 C 0,0 C -1,7 C 83 % 0 lf 1032,0 hPa 0,0 l/m 0 min 0 min 0 W/m 18,8 km/h (3 Bft) 100,00 %
28.11.2016 18:54 0,2 C 0,0 C -1,7 C 83 % 0 lf 1032,0 hPa 0,0 l/m 0 min 0 min 0 W/m 14,6 km/h (3 Bft) 95,74 %
28.11.2016 18:56 0,2 C 0,0 C -1,7 C 83 % 0 lf 1032,0 hPa 0,0 l/m 0 min 0 min 0 W/m 12,6 km/h (3 Bft) 97,87 %
28.11.2016 18:58 0,2 C 0,0 C -2,2 C 83 % 0 lf 1032,0 hPa 0,0 l/m 0 min 0 min 0 W/m 8,4 km/h (2 Bft) 100,00 %
28.11.2016 19:00 0,2 C 0,0 C -2,2 C 83 % 0 lf 1032,0 hPa 0,0 l/m 0 min 0 min 0 W/m 12,6 km/h (3 Bft) 95,74 %
28.11.2016 19:02 0,2 C -0,6 C -2,2 C 83 % 0 lf 1032,0 hPa 0,0 l/m 0 min 0 min 0 W/m 12,6 km/h (3 Bft) 100,00 %
28.11.2016 19:04 0,1 C 0,0 C -2,2 C 83 % 0 lf 1032,0 hPa 0,0 l/m 0 min 0 min 0 W/m 20,9 km/h (4 Bft) 100,00 %
28.11.2016 19:06 0,1 C 0,0 C -2,2 C 83 % 0 lf 1032,0 hPa 0,0 l/m 0 min 0 min 0 W/m 14,6 km/h (3 Bft) 100,00 %
28.11.2016 19:08 0,1 C 0,0 C -2,2 C 83 % 0 lf 1032,1 hPa 0,0 l/m 0 min 0 min 0 W/m 18,8 km/h (3 Bft) 97,87 %
28.11.2016 19:10 0,1 C 0,0 C -2,2 C 83 % 0 lf 1032,1 hPa 0,0 l/m 0 min 0 min 0 W/m 14,6 km/h (3 Bft) 93,62 %
28.11.2016 19:12 0,1 C 0,0 C -2,2 C 83 % 0 lf 1032,2 hPa 0,0 l/m 0 min 0 min 0 W/m 16,7 km/h (3 Bft) 100,00 %
28.11.2016 19:14 0,1 C 0,0 C -2,2 C 83 % 0 lf 1032,2 hPa 0,0 l/m 0 min 0 min 0 W/m 12,6 km/h (3 Bft) 97,83 %
28.11.2016 19:16 0,1 C 0,0 C -2,2 C 83 % 0 lf 1032,1 hPa 0,0 l/m 0 min 0 min 0 W/m 12,6 km/h (3 Bft) 95,74 %
28.11.2016 19:18 0,1 C 0,0 C -2,2 C 83 % 0 lf 1032,2 hPa 0,0 l/m 0 min 0 min 0 W/m 14,6 km/h (3 Bft) 97,87 %
28.11.2016 19:20 0,1 C 0,0 C -2,2 C 83 % 0 lf 1032,2 hPa 0,0 l/m 0 min 0 min 0 W/m 16,7 km/h (3 Bft) 95,74 %
28.11.2016 19:22 0,1 C 0,0 C -2,2 C 83 % 0 lf 1032,2 hPa 0,0 l/m 0 min 0 min 0 W/m 14,6 km/h (3 Bft) 97,87 %
28.11.2016 19:24 0,1 C 0,0 C -2,2 C 83 % 0 lf 1032,3 hPa 0,0 l/m 0 min 0 min 0 W/m 14,6 km/h (3 Bft) 97,87 %
28.11.2016 19:26 0,1 C 0,0 C -2,2 C 83 % 0 lf 1032,2 hPa 0,0 l/m 0 min 0 min 0 W/m 20,9 km/h (4 Bft) 95,65 %
28.11.2016 19:28 0,0 C 0,0 C -2,2 C 84 % 0 lf 1032,3 hPa 0,0 l/m 0 min 0 min 0 W/m 18,8 km/h (3 Bft) 93,62 %
28.11.2016 19:30 0,0 C 0,0 C -2,2 C 84 % 0 lf 1032,3 hPa 0,0 l/m 0 min 0 min 0 W/m 16,7 km/h (3 Bft) 97,87 %
28.11.2016 19:32 0,0 C 0,0 C -2,2 C 84 % 0 lf 1032,3 hPa 0,0 l/m 0 min 0 min 0 W/m 16,7 km/h (3 Bft) 97,87 %
28.11.2016 19:34 0,0 C 0,0 C -2,2 C 84 % 0 lf 1032,3 hPa 0,0 l/m 0 min 0 min 0 W/m 14,6 km/h (3 Bft) 95,74 %
28.11.2016 19:36 0,0 C 0,0 C -2,2 C 84 % 0 lf 1032,3 hPa 0,0 l/m 0 min 0 min 0 W/m 12,6 km/h (3 Bft) 93,62 %
28.11.2016 19:38 0,0 C 0,0 C -2,2 C 84 % 0 lf 1032,3 hPa 0,0 l/m 0 min 0 min 0 W/m 10,5 km/h (2 Bft) 95,65 %
28.11.2016 19:40 -0,1 C -0,6 C -2,2 C 84 % 0 lf 1032,3 hPa 0,0 l/m 0 min 0 min 0 W/m 12,6 km/h (3 Bft) 93,62 %
28.11.2016 19:42 -0,1 C -0,6 C -2,2 C 84 % 0 lf 1032,3 hPa 0,0 l/m 0 min 0 min 0 W/m 14,6 km/h (3 Bft) 93,62 %
28.11.2016 19:44 -0,1 C -0,6 C -2,2 C 84 % 0 lf 1032,3 hPa 0,0 l/m 0 min 0 min 0 W/m 12,6 km/h (3 Bft) 91,49 %
28.11.2016 19:46 -0,1 C -0,6 C -2,8 C 84 % 0 lf 1032,3 hPa 0,0 l/m 0 min 0 min 0 W/m 12,6 km/h (3 Bft) 89,36 %
28.11.2016 19:48 -0,1 C -0,6 C -2,8 C 84 % 0 lf 1032,3 hPa 0,0 l/m 0 min 0 min 0 W/m 10,5 km/h (2 Bft) 97,87 %
28.11.2016 19:50 -0,1 C -0,6 C -2,8 C 84 % 0 lf 1032,3 hPa 0,0 l/m 0 min 0 min 0 W/m 8,4 km/h (2 Bft) 97,83 %
28.11.2016 19:52 -0,2 C -0,6 C -2,8 C 84 % 0 lf 1032,3 hPa 0,0 l/m 0 min 0 min 0 W/m 8,4 km/h (2 Bft) 95,74 %
28.11.2016 19:54 -0,2 C -0,6 C -2,8 C 84 % 0 lf 1032,3 hPa 0,0 l/m 0 min 0 min 0 W/m 8,4 km/h (2 Bft) 97,87 %
28.11.2016 19:56 -0,2 C -0,6 C -2,8 C 84 % 0 lf 1032,3 hPa 0,0 l/m 0 min 0 min 0 W/m 14,6 km/h (3 Bft) 95,74 %
28.11.2016 19:58 -0,2 C -0,6 C -3,3 C 84 % 0 lf 1032,3 hPa 0,0 l/m 0 min 0 min 0 W/m 10,5 km/h (2 Bft) 91,49 %
28.11.2016 20:00 -0,2 C -1,1 C -3,3 C 84 % 0 lf 1032,3 hPa 0,0 l/m 0 min 0 min 0 W/m 12,6 km/h (3 Bft) 97,87 %
28.11.2016 20:02 -0,3 C -1,1 C -3,3 C 84 % 0 lf 1032,4 hPa 0,0 l/m 0 min 0 min 0 W/m 16,7 km/h (3 Bft) 95,65 %
28.11.2016 20:04 -0,3 C -1,1 C -2,8 C 84 % 0 lf 1032,3 hPa 0,0 l/m 0 min 0 min 0 W/m 14,6 km/h (3 Bft) 97,87 %
28.11.2016 20:05 -0,3 C -1,1 C -2,8 C 84 % 0 lf 1032,3 hPa 0,0 l/m 0 min 0 min 0 W/m 6,3 km/h (2 Bft) 100,00 %
28.11.2016 20:06 -0,3 C -1,1 C -2,8 C 84 % 0 lf 1032,3 hPa 0,0 l/m 0 min 0 min 0 W/m 8,4 km/h (2 Bft) 95,65 %
28.11.2016 20:07 -0,3 C -1,1 C -2,8 C 84 % 0 lf 1032,4 hPa 0,0 l/m 0 min 0 min 0 W/m 12,6 km/h (3 Bft) 100,00 %
28.11.2016 20:08 -0,4 C -1,1 C -2,8 C 84 % 0 lf 1032,4 hPa 0,0 l/m 0 min 0 min 0 W/m 14,6 km/h (3 Bft) 95,65 %
28.11.2016 20:09 -0,4 C -1,1 C -2,8 C 84 % 0 lf 1032,4 hPa 0,0 l/m 0 min 0 min 0 W/m 12,6 km/h (3 Bft) 100,00 %
28.11.2016 20:12 -0,4 C -1,1 C -2,8 C 84 % 0 lf 1032,4 hPa 0,0 l/m 0 min 0 min 0 W/m 10,5 km/h (2 Bft) 95,45 %
28.11.2016 20:14 -0,4 C -1,1 C -2,8 C 84 % 0 lf 1032,4 hPa 0,0 l/m 0 min 0 min 0 W/m 10,5 km/h (2 Bft) 93,62 %
28.11.2016 20:16 -0,5 C -1,1 C -2,8 C 84 % 0 lf 1032,5 hPa 0,0 l/m 0 min 0 min 0 W/m 16,7 km/h (3 Bft) 93,48 %
28.11.2016 20:18 -0,5 C -1,1 C -2,8 C 84 % 0 lf 1032,5 hPa 0,0 l/m 0 min 0 min 0 W/m 16,7 km/h (3 Bft) 93,62 %
28.11.2016 20:20 -0,6 C -1,1 C -2,8 C 84 % 0 lf 1032,5 hPa 0,0 l/m 0 min 0 min 0 W/m 16,7 km/h (3 Bft) 95,74 %
28.11.2016 20:22 -0,6 C -1,1 C -2,8 C 84 % 0 lf 1032,5 hPa 0,0 l/m 0 min 0 min 0 W/m 10,5 km/h (2 Bft) 95,74 %
28.11.2016 20:24 -0,6 C -0,6 C -2,8 C 85 % 0 lf 1032,6 hPa 0,0 l/m 0 min 0 min 0 W/m 10,5 km/h (2 Bft) 93,62 %
28.11.2016 20:26 -0,6 C -0,6 C -2,8 C 85 % 0 lf 1032,6 hPa 0,0 l/m 0 min 0 min 0 W/m 12,6 km/h (3 Bft) 95,74 %
28.11.2016 20:28 -0,6 C -0,6 C -2,8 C 85 % 0 lf 1032,6 hPa 0,0 l/m 0 min 0 min 0 W/m 12,6 km/h (3 Bft) 95,65 %
28.11.2016 20:30 -0,6 C -0,6 C -2,8 C 85 % 0 lf 1032,7 hPa 0,0 l/m 0 min 0 min 0 W/m 8,4 km/h (2 Bft) 95,74 %
28.11.2016 20:32 -0,6 C -0,6 C -2,8 C 85 % 0 lf 1032,6 hPa 0,0 l/m 0 min 0 min 0 W/m 8,4 km/h (2 Bft) 97,87 %
28.11.2016 20:34 -0,6 C -0,6 C -2,8 C 85 % 0 lf 1032,6 hPa 0,0 l/m 0 min 0 min 0 W/m 10,5 km/h (2 Bft) 95,74 %
28.11.2016 20:36 -0,7 C -0,6 C -2,8 C 85 % 0 lf 1032,6 hPa 0,0 l/m 0 min 0 min 0 W/m 14,6 km/h (3 Bft) 93,62 %
28.11.2016 20:38 -0,7 C -0,6 C -2,8 C 85 % 0 lf 1032,5 hPa 0,0 l/m 0 min 0 min 0 W/m 12,6 km/h (3 Bft) 95,74 %
28.11.2016 20:40 -0,7 C -0,6 C -2,8 C 85 % 0 lf 1032,6 hPa 0,0 l/m 0 min 0 min 0 W/m 10,5 km/h (2 Bft) 95,65 %
28.11.2016 20:42 -0,7 C -0,6 C -2,8 C 85 % 0 lf 1032,6 hPa 0,0 l/m 0 min 0 min 0 W/m 10,5 km/h (2 Bft) 95,74 %
28.11.2016 20:44 -0,7 C -0,6 C -2,8 C 85 % 0 lf 1032,7 hPa 0,0 l/m 0 min 0 min 0 W/m 10,5 km/h (2 Bft) 91,49 %
28.11.2016 20:46 -0,7 C -1,1 C -3,3 C 85 % 0 lf 1032,8 hPa 0,0 l/m 0 min 0 min 0 W/m 10,5 km/h (2 Bft) 97,87 %
28.11.2016 20:48 -0,7 C -1,1 C -3,3 C 85 % 0 lf 1032,8 hPa 0,0 l/m 0 min 0 min 0 W/m 10,5 km/h (2 Bft) 97,87 %
28.11.2016 20:50 -0,7 C -1,1 C -3,3 C 85 % 0 lf 1032,9 hPa 0,0 l/m 0 min 0 min 0 W/m 12,6 km/h (3 Bft) 97,87 %
28.11.2016 20:52 -0,7 C -1,1 C -3,3 C 85 % 0 lf 1032,9 hPa 0,0 l/m 0 min 0 min 0 W/m 12,6 km/h (3 Bft) 97,83 %
28.11.2016 20:54 -0,8 C -1,1 C -3,3 C 85 % 0 lf 1032,9 hPa 0,0 l/m 0 min 0 min 0 W/m 6,3 km/h (2 Bft) 97,87 %
28.11.2016 20:56 -0,8 C -1,1 C -3,3 C 85 % 0 lf 1032,9 hPa 0,0 l/m 0 min 0 min 0 W/m 8,4 km/h (2 Bft) 95,74 %
28.11.2016 20:58 -0,8 C -1,1 C -3,3 C 85 % 0 lf 1033,0 hPa 0,0 l/m 0 min 0 min 0 W/m 6,3 km/h (2 Bft) 95,74 %
28.11.2016 21:00 -0,8 C -1,1 C -3,3 C 85 % 0 lf 1033,0 hPa 0,0 l/m 0 min 0 min 0 W/m 6,3 km/h (2 Bft) 93,62 %
28.11.2016 21:02 -0,8 C -1,1 C -3,3 C 85 % 0 lf 1033,0 hPa 0,0 l/m 0 min 0 min 0 W/m 6,3 km/h (2 Bft) 100,00 %
28.11.2016 21:04 -0,8 C -1,7 C -3,3 C 85 % 0 lf 1033,0 hPa 0,0 l/m 0 min 0 min 0 W/m 10,5 km/h (2 Bft) 95,74 %
28.11.2016 21:06 -0,8 C -1,7 C -3,9 C 85 % 0 lf 1033,0 hPa 0,0 l/m 0 min 0 min 5 W/m 6,3 km/h (2 Bft) 100,00 %
28.11.2016 21:08 -0,9 C -1,7 C -3,9 C 85 % 0 lf 1033,0 hPa 0,0 l/m 0 min 0 min 0 W/m 10,5 km/h (2 Bft) 95,74 %
28.11.2016 21:10 -0,9 C -1,7 C -3,9 C 85 % 0 lf 1033,0 hPa 0,0 l/m 0 min 0 min 0 W/m 10,5 km/h (2 Bft) 97,87 %
28.11.2016 21:12 -0,9 C -1,7 C -3,9 C 85 % 0 lf 1033,1 hPa 0,0 l/m 0 min 0 min 0 W/m 8,4 km/h (2 Bft) 91,49 %
28.11.2016 21:14 -0,9 C -1,7 C -3,9 C 85 % 0 lf 1033,0 hPa 0,0 l/m 0 min 0 min 0 W/m 8,4 km/h (2 Bft) 97,83 %
28.11.2016 21:16 -0,9 C -1,7 C -3,9 C 85 % 0 lf 1033,1 hPa 0,0 l/m 0 min 0 min 0 W/m 8,4 km/h (2 Bft) 93,62 %
28.11.2016 21:18 -1,0 C -1,7 C -3,9 C 85 % 0 lf 1033,1 hPa 0,0 l/m 0 min 0 min 0 W/m 8,4 km/h (2 Bft) 97,87 %
28.11.2016 21:20 -1,1 C -1,7 C -3,9 C 86 % 0 lf 1033,0 hPa 0,0 l/m 0 min 0 min 0 W/m 6,3 km/h (2 Bft) 97,87 %
28.11.2016 21:22 -1,1 C -1,7 C -3,9 C 86 % 0 lf 1033,0 hPa 0,0 l/m 0 min 0 min 4 W/m 12,6 km/h (3 Bft) 95,74 %
28.11.2016 21:24 -1,1 C -1,7 C -3,9 C 86 % 0 lf 1033,0 hPa 0,0 l/m 0 min 0 min 1 W/m 8,4 km/h (2 Bft) 100,00 %
28.11.2016 21:26 -1,1 C -1,7 C -3,9 C 85 % 0 lf 1033,1 hPa 0,0 l/m 0 min 0 min 5 W/m 10,5 km/h (2 Bft) 95,65 %
28.11.2016 21:28 -1,2 C -1,7 C -3,9 C 85 % 0 lf 1033,1 hPa 0,0 l/m 0 min 0 min 5 W/m 14,6 km/h (3 Bft) 95,74 %
28.11.2016 21:30 -1,2 C -1,7 C -3,9 C 86 % 0 lf 1033,0 hPa 0,0 l/m 0 min 0 min 5 W/m 10,5 km/h (2 Bft) 95,74 %
28.11.2016 21:32 -1,2 C -1,7 C -3,9 C 86 % 0 lf 1033,1 hPa 0,0 l/m 0 min 0 min 5 W/m 8,4 km/h (2 Bft) 95,74 %
28.11.2016 21:34 -1,2 C -1,7 C -3,9 C 86 % 0 lf 1033,1 hPa 0,0 l/m 0 min 0 min 5 W/m 10,5 km/h (2 Bft) 93,62 %
28.11.2016 21:36 -1,2 C -1,7 C -3,9 C 86 % 0 lf 1033,1 hPa 0,0 l/m 0 min 0 min 5 W/m 10,5 km/h (2 Bft) 97,87 %
28.11.2016 21:38 -1,3 C -1,7 C -3,9 C 86 % 0 lf 1033,2 hPa 0,0 l/m 0 min 0 min 5 W/m 8,4 km/h (2 Bft) 95,65 %
28.11.2016 21:40 -1,3 C -1,7 C -3,9 C 86 % 0 lf 1033,3 hPa 0,0 l/m 0 min 0 min 5 W/m 14,6 km/h (3 Bft) 97,87 %
28.11.2016 21:42 -1,3 C -1,7 C -3,9 C 86 % 0 lf 1033,3 hPa 0,0 l/m 0 min 0 min 5 W/m 10,5 km/h (2 Bft) 100,00 %
28.11.2016 21:44 -1,3 C -1,7 C -3,9 C 86 % 0 lf 1033,3 hPa 0,0 l/m 0 min 0 min 5 W/m 8,4 km/h (2 Bft) 100,00 %
28.11.2016 21:46 -1,3 C -1,7 C -3,9 C 86 % 0 lf 1033,4 hPa 0,0 l/m 0 min 0 min 5 W/m 6,3 km/h (2 Bft) 95,74 %
28.11.2016 21:48 -1,3 C -1,7 C -3,9 C 86 % 0 lf 1033,3 hPa 0,0 l/m 0 min 0 min 5 W/m 8,4 km/h (2 Bft) 97,87 %
28.11.2016 21:50 -1,4 C -1,7 C -3,9 C 86 % 0 lf 1033,4 hPa 0,0 l/m 0 min 0 min 5 W/m 6,3 km/h (2 Bft) 100,00 %
28.11.2016 21:52 -1,4 C -2,2 C -3,9 C 86 % 0 lf 1033,3 hPa 0,0 l/m 0 min 0 min 0 W/m 14,6 km/h (3 Bft) 100,00 %
28.11.2016 21:54 -1,4 C -2,2 C -3,9 C 86 % 0 lf 1033,3 hPa 0,0 l/m 0 min 0 min 0 W/m 8,4 km/h (2 Bft) 94,29 %
28.11.2016 21:56 -1,4 C -2,2 C -3,9 C 86 % 0 lf 1033,3 hPa 0,0 l/m 0 min 0 min 0 W/m 8,4 km/h (2 Bft) 100,00 %
28.11.2016 21:58 -1,4 C -2,2 C -3,9 C 86 % 0 lf 1033,3 hPa 0,0 l/m 0 min 0 min 0 W/m 8,4 km/h (2 Bft) 100,00 %
28.11.2016 22:00 -1,4 C -2,2 C -3,9 C 87 % 0 lf 1033,4 hPa 0,0 l/m 0 min 0 min 0 W/m 6,3 km/h (2 Bft) 96,55 %
28.11.2016 22:02 -1,5 C -2,2 C -4,4 C 87 % 0 lf 1033,3 hPa 0,0 l/m 0 min 0 min 0 W/m 6,3 km/h (2 Bft) 94,29 %
28.11.2016 22:04 -1,5 C -2,2 C -4,4 C 87 % 0 lf 1033,4 hPa 0,0 l/m 0 min 0 min 0 W/m 8,4 km/h (2 Bft) 95,74 %
28.11.2016 22:06 -1,6 C -2,2 C -4,4 C 86 % 0 lf 1033,4 hPa 0,0 l/m 0 min 0 min 0 W/m 10,5 km/h (2 Bft) 96,61 %
28.11.2016 22:08 -1,6 C -2,2 C -4,4 C 86 % 0 lf 1033,4 hPa 0,0 l/m 0 min 0 min 0 W/m 8,4 km/h (2 Bft) 93,62 %
28.11.2016 22:10 -1,6 C -2,2 C -4,4 C 87 % 0 lf 1033,3 hPa 0,0 l/m 0 min 0 min 0 W/m 6,3 km/h (2 Bft) 95,65 %
28.11.2016 22:12 -1,6 C -2,2 C -4,4 C 87 % 0 lf 1033,4 hPa 0,0 l/m 0 min 0 min 0 W/m 4,2 km/h (1 Bft) 91,67 %
28.11.2016 22:14 -1,6 C -2,2 C -4,4 C 87 % 0 lf 1033,4 hPa 0,0 l/m 0 min 0 min 0 W/m 6,3 km/h (2 Bft) 93,10 %
28.11.2016 22:16 -1,6 C -2,2 C -4,4 C 87 % 0 lf 1033,4 hPa 0,0 l/m 0 min 0 min 0 W/m 4,2 km/h (1 Bft) 93,62 %
28.11.2016 22:18 -1,7 C -2,2 C -4,4 C 87 % 0 lf 1033,4 hPa 0,0 l/m 0 min 0 min 0 W/m 4,2 km/h (1 Bft) 95,74 %
28.11.2016 22:20 -1,7 C -2,8 C -4,4 C 87 % 1 lf 1033,4 hPa 0,0 l/m 0 min 0 min 0 W/m 4,2 km/h (1 Bft) 94,29 %
28.11.2016 22:22 -1,7 C -2,8 C -4,4 C 87 % 1 lf 1033,4 hPa 0,0 l/m 0 min 0 min 0 W/m 6,3 km/h (2 Bft) 91,38 %
28.11.2016 22:24 -1,7 C -2,8 C -4,4 C 87 % 1 lf 1033,4 hPa 0,0 l/m 0 min 0 min 0 W/m 2,1 km/h (1 Bft) 95,74 %
28.11.2016 22:26 -1,7 C -3,3 C -4,4 C 87 % 1 lf 1033,4 hPa 0,0 l/m 0 min 0 min 0 W/m 2,1 km/h (1 Bft) 95,74 %
28.11.2016 22:28 -1,8 C -3,3 C -4,4 C 87 % 1 lf 1033,4 hPa 0,0 l/m 0 min 0 min 0 W/m 0,0 km/h (0 Bft) 91,43 %
28.11.2016 22:30 -1,8 C -3,3 C -4,4 C 87 % 1 lf 1033,4 hPa 0,0 l/m 0 min 0 min 0 W/m 0,0 km/h (0 Bft) 95,74 %
28.11.2016 22:32 -1,8 C -3,3 C -4,4 C 87 % 1 lf 1033,4 hPa 0,0 l/m 0 min 0 min 0 W/m 4,2 km/h (1 Bft) 94,83 %
28.11.2016 22:34 -1,8 C -3,3 C -4,4 C 87 % 1 lf 1033,4 hPa 0,0 l/m 0 min 0 min 0 W/m 6,3 km/h (2 Bft) 95,74 %
28.11.2016 22:36 -1,8 C -3,3 C -4,4 C 87 % 1 lf 1033,4 hPa 0,0 l/m 0 min 0 min 0 W/m 6,3 km/h (2 Bft) 94,29 %
28.11.2016 22:38 -1,9 C -3,3 C -4,4 C 87 % 1 lf 1033,4 hPa 0,0 l/m 0 min 0 min 2 W/m 6,3 km/h (2 Bft) 93,22 %
28.11.2016 22:40 -1,9 C -3,3 C -4,4 C 87 % 1 lf 1033,4 hPa 0,0 l/m 0 min 0 min 5 W/m 6,3 km/h (2 Bft) 97,14 %
28.11.2016 22:42 -1,9 C -3,3 C -4,4 C 87 % 1 lf 1033,4 hPa 0,0 l/m 0 min 0 min 5 W/m 6,3 km/h (2 Bft) 95,74 %
28.11.2016 22:44 -2,0 C -3,3 C -4,4 C 87 % 1 lf 1033,4 hPa 0,0 l/m 0 min 0 min 5 W/m 4,2 km/h (1 Bft) 93,10 %
28.11.2016 22:46 -2,0 C -3,3 C -5,0 C 87 % 1 lf 1033,4 hPa 0,0 l/m 0 min 0 min 5 W/m 6,3 km/h (2 Bft) 100,00 %
28.11.2016 22:48 -2,1 C -2,8 C -5,0 C 87 % 1 lf 1033,4 hPa 0,0 l/m 0 min 0 min 5 W/m 6,3 km/h (2 Bft) 95,65 %
28.11.2016 22:50 -2,1 C -2,8 C -5,0 C 87 % 1 lf 1033,4 hPa 0,0 l/m 0 min 0 min 5 W/m 4,2 km/h (1 Bft) 94,92 %
28.11.2016 22:52 -2,1 C -2,8 C -5,0 C 87 % 1 lf 1033,4 hPa 0,0 l/m 0 min 0 min 5 W/m 6,3 km/h (2 Bft) 95,74 %
28.11.2016 22:54 -2,2 C -3,3 C -5,0 C 87 % 1 lf 1033,5 hPa 0,0 l/m 0 min 0 min 5 W/m 6,3 km/h (2 Bft) 94,29 %
28.11.2016 22:56 -2,2 C -3,3 C -5,0 C 87 % 1 lf 1033,5 hPa 0,0 l/m 0 min 0 min 5 W/m 8,4 km/h (2 Bft) 97,87 %
28.11.2016 22:58 -2,2 C -3,3 C -5,0 C 87 % 1 lf 1033,4 hPa 0,0 l/m 0 min 0 min 5 W/m 8,4 km/h (2 Bft) 97,83 %
28.11.2016 23:00 -2,2 C -3,3 C -5,0 C 87 % 1 lf 1033,5 hPa 0,0 l/m 0 min 0 min 5 W/m 8,4 km/h (2 Bft) 97,87 %
28.11.2016 23:02 -2,3 C -3,3 C -5,0 C 87 % 1 lf 1033,4 hPa 0,0 l/m 0 min 0 min 5 W/m 8,4 km/h (2 Bft) 95,74 %
28.11.2016 23:04 -2,3 C -3,3 C -5,0 C 87 % 1 lf 1033,4 hPa 0,0 l/m 0 min 0 min 5 W/m 8,4 km/h (2 Bft) 95,74 %
28.11.2016 23:06 -2,3 C -2,8 C -5,0 C 87 % 1 lf 1033,4 hPa 0,0 l/m 0 min 0 min 5 W/m 8,4 km/h (2 Bft) 96,61 %
28.11.2016 23:08 -2,3 C -2,8 C -5,0 C 87 % 1 lf 1033,4 hPa 0,0 l/m 0 min 0 min 5 W/m 10,5 km/h (2 Bft) 93,48 %
28.11.2016 23:10 -2,4 C -2,8 C -5,0 C 87 % 1 lf 1033,5 hPa 0,0 l/m 0 min 0 min 5 W/m 8,4 km/h (2 Bft) 93,62 %
28.11.2016 23:12 -2,4 C -2,8 C -5,0 C 87 % 1 lf 1033,4 hPa 0,0 l/m 0 min 0 min 5 W/m 8,4 km/h (2 Bft) 91,43 %
28.11.2016 23:14 -2,4 C -2,8 C -5,0 C 87 % 1 lf 1033,4 hPa 0,0 l/m 0 min 0 min 5 W/m 8,4 km/h (2 Bft) 94,92 %
28.11.2016 23:16 -2,5 C -2,8 C -5,0 C 87 % 1 lf 1033,4 hPa 0,0 l/m 0 min 0 min 5 W/m 6,3 km/h (2 Bft) 95,74 %
28.11.2016 23:18 -2,5 C -2,2 C -5,0 C 87 % 1 lf 1033,4 hPa 0,0 l/m 0 min 0 min 5 W/m 6,3 km/h (2 Bft) 88,57 %
28.11.2016 23:20 -2,5 C -2,2 C -5,0 C 87 % 1 lf 1033,3 hPa 0,0 l/m 0 min 0 min 5 W/m 6,3 km/h (2 Bft) 94,83 %
28.11.2016 23:22 -2,5 C -2,8 C -5,0 C 87 % 1 lf 1033,4 hPa 0,0 l/m 0 min 0 min 5 W/m 8,4 km/h (2 Bft) 95,74 %
28.11.2016 23:24 -2,5 C -2,8 C -5,0 C 88 % 1 lf 1033,4 hPa 0,0 l/m 0 min 0 min 5 W/m 6,3 km/h (2 Bft) 94,29 %
28.11.2016 23:26 -2,5 C -2,2 C -5,0 C 88 % 1 lf 1033,4 hPa 0,0 l/m 0 min 0 min 5 W/m 8,4 km/h (2 Bft) 94,92 %
28.11.2016 23:28 -2,6 C -2,2 C -5,0 C 88 % 1 lf 1033,5 hPa 0,0 l/m 0 min 0 min 5 W/m 6,3 km/h (2 Bft) 93,62 %
28.11.2016 23:30 -2,6 C -2,2 C -4,4 C 88 % 1 lf 1033,4 hPa 0,0 l/m 0 min 0 min 5 W/m 6,3 km/h (2 Bft) 93,48 %
28.11.2016 23:32 -2,6 C -2,2 C -5,0 C 88 % 1 lf 1033,5 hPa 0,0 l/m 0 min 0 min 5 W/m 10,5 km/h (2 Bft) 94,44 %
28.11.2016 23:34 -2,5 C -2,2 C -5,0 C 88 % 1 lf 1033,5 hPa 0,0 l/m 0 min 0 min 5 W/m 6,3 km/h (2 Bft) 94,83 %
28.11.2016 23:36 -2,5 C -2,2 C -5,0 C 88 % 1 lf 1033,5 hPa 0,0 l/m 0 min 0 min 5 W/m 4,2 km/h (1 Bft) 97,87 %
28.11.2016 23:38 -2,6 C -2,8 C -5,0 C 89 % 2 lf 1033,5 hPa 0,0 l/m 0 min 0 min 5 W/m 6,3 km/h (2 Bft) 94,29 %
28.11.2016 23:40 -2,6 C -2,8 C -5,0 C 89 % 2 lf 1033,5 hPa 0,0 l/m 0 min 0 min 5 W/m 6,3 km/h (2 Bft) 96,61 %
28.11.2016 23:42 -2,6 C -2,2 C -5,0 C 89 % 2 lf 1033,5 hPa 0,0 l/m 0 min 0 min 5 W/m 6,3 km/h (2 Bft) 94,29 %
28.11.2016 23:44 -2,6 C -2,8 C -5,0 C 89 % 2 lf 1033,5 hPa 0,0 l/m 0 min 0 min 5 W/m 8,4 km/h (2 Bft) 98,28 %
28.11.2016 23:46 -2,6 C -2,2 C -5,0 C 89 % 2 lf 1033,4 hPa 0,0 l/m 0 min 0 min 5 W/m 6,3 km/h (2 Bft) 95,74 %
28.11.2016 23:48 -2,6 C -2,2 C -5,0 C 89 % 2 lf 1033,4 hPa 0,0 l/m 0 min 0 min 5 W/m 6,3 km/h (2 Bft) 95,74 %
28.11.2016 23:50 -2,6 C -2,2 C -5,0 C 89 % 2 lf 1033,4 hPa 0,0 l/m 0 min 0 min 5 W/m 6,3 km/h (2 Bft) 100,00 %
28.11.2016 23:52 -2,6 C -2,2 C -5,0 C 89 % 2 lf 1033,5 hPa 0,0 l/m 0 min 0 min 5 W/m 6,3 km/h (2 Bft) 96,61 %
28.11.2016 23:54 -2,6 C -2,2 C -5,0 C 89 % 2 lf 1033,4 hPa 0,0 l/m 0 min 0 min 5 W/m 6,3 km/h (2 Bft) 95,65 %
28.11.2016 23:56 -2,6 C -2,8 C -5,0 C 89 % 2 lf 1033,4 hPa 0,0 l/m 0 min 0 min 5 W/m 6,3 km/h (2 Bft) 97,87 %
28.11.2016 23:58 -2,6 C -2,8 C -5,0 C 89 % 2 lf 1033,4 hPa 0,0 l/m 0 min 0 min 5 W/m 6,3 km/h (2 Bft) 95,74 %
_ Min-Zeit 08:44 06:24 22:46 14:40 12:30 00:00 - - - - 04:58 09:36
Minimum _ -2,7 C -3,9 C -5,0 C 67 % 0 lf 1023,8 hPa - - - - 0,0 km/h (0 Bft) 85,11 %
_ Max-Zeit 13:58 14:00 14:04 10:30 00:00 22:54 10:50 08:54 03:20 13:38 14:02 01:12
Maximum _ 4,4 C 11,7 C 2,2 C 97 % 15 lf 1033,5 hPa 0,2 l/m 2 min 2 min 319 W/m 31,4 km/h
N-NO (5 Bft)
100,00 %
Durchschnitt _ 0,4 C 0,6 C -1,9 C 88 % 6 lf 1029,3 hPa #0,2 l/m #6:44 h #20 min. 95 W/m 11,5 km/h (2 Bft) 95,88 %
© 2016 W. Hausmann